| time (UTC) | temp C | wind direction | speed KPH | gust KPH | rain 1hr cm | rain 24hr cm | rain mn cm | humidity % | barometer mb |
| 20260502170507 | 18 | 215 | 4.8 | 16.1 | 0.00 | 0.00 | 0.00 | 86 | 1015.8 |
| 20260502170406 | 18 | 313 | 6.4 | 16.1 | 0.00 | 0.00 | 0.00 | 86 | 1015.8 |
| 20260502170307 | 18 | 153 | 8.0 | 16.1 | 0.00 | 0.00 | 0.00 | 86 | 1015.7 |
| 20260502170206 | 18 | 84 | 8.0 | 16.1 | 0.00 | 0.00 | 0.00 | 86 | 1015.8 |
| 20260502170106 | 18 | 74 | 8.0 | 16.1 | 0.00 | 0.00 | 0.00 | 86 | 1015.8 |
| 20260502164305 | 18 | 108 | 8.0 | 20.9 | 0.00 | 0.00 | 0.00 | 85 | 1016.0 |
| 20260502164206 | 18 | 114 | 8.0 | 19.3 | 0.00 | 0.00 | 0.00 | 85 | 1016.0 |
| 20260502164106 | 18 | 104 | 8.0 | 19.3 | 0.00 | 0.00 | 0.00 | 85 | 1016.0 |
| 20260502164008 | 18 | 58 | 8.0 | 19.3 | 0.00 | 0.00 | 0.00 | 85 | 1016.1 |
| 20260502163907 | 18 | 89 | 8.0 | 19.3 | 0.00 | 0.00 | 0.00 | 85 | 1016.1 |
| 20260502163808 | 18 | 107 | 8.0 | 19.3 | 0.00 | 0.00 | 0.00 | 85 | 1016.1 |
| 20260502163606 | 18 | 335 | 8.0 | 19.3 | 0.00 | 0.00 | 0.00 | 85 | 1016.0 |
| 20260502163406 | 18 | 135 | 6.4 | 19.3 | 0.00 | 0.00 | 0.00 | 85 | 1016.0 |
| 20260502163308 | 18 | 132 | 8.0 | 19.3 | 0.00 | 0.00 | 0.00 | 85 | 1016.0 |
| 20260502163108 | 18 | 151 | 8.0 | 19.3 | 0.00 | 0.00 | 0.00 | 85 | 1016.1 |
| 20260502163009 | 18 | 85 | 8.0 | 19.3 | 0.00 | 0.00 | 0.00 | 85 | 1016.0 |
| 20260502162906 | 18 | 157 | 8.0 | 19.3 | 0.00 | 0.00 | 0.00 | 85 | 1015.9 |
| 20260502162806 | 18 | 109 | 6.4 | 19.3 | 0.00 | 0.00 | 0.00 | 85 | 1015.9 |
| 20260502162705 | 18 | 107 | 6.4 | 19.3 | 0.00 | 0.00 | 0.00 | 85 | 1015.9 |
| 20260502162608 | 18 | 85 | 8.0 | 19.3 | 0.00 | 0.00 | 0.00 | 85 | 1015.8 |
| 20260502162507 | 18 | 89 | 8.0 | 22.5 | 0.00 | 0.00 | 0.00 | 85 | 1015.9 |
| 20260502162305 | 18 | 255 | 8.0 | 22.5 | 0.00 | 0.00 | 0.00 | 85 | 1015.9 |
| 20260502162010 | 18 | 355 | 8.0 | 22.5 | 0.00 | 0.00 | 0.00 | 85 | 1016.0 |
| 20260502161906 | 18 | 112 | 8.0 | 22.5 | 0.00 | 0.00 | 0.00 | 85 | 1016.0 |
| 20260502161807 | 18 | 164 | 8.0 | 22.5 | 0.00 | 0.00 | 0.00 | 85 | 1016.0 |
| 20260502161706 | 18 | 82 | 8.0 | 22.5 | 0.00 | 0.00 | 0.00 | 85 | 1016.0 |
| 20260502161507 | 18 | 108 | 8.0 | 19.3 | 0.00 | 0.00 | 0.00 | 85 | 1016.0 |
| 20260502161406 | 18 | 101 | 8.0 | 19.3 | 0.00 | 0.00 | 0.00 | 85 | 1015.9 |
| 20260502161206 | 18 | 131 | 6.4 | 19.3 | 0.00 | 0.00 | 0.00 | 85 | 1015.9 |
| 20260502161106 | 18 | 57 | 6.4 | 16.1 | 0.00 | 0.00 | 0.00 | 85 | 1016.0 |
| 20260502161011 | 18 | 153 | 6.4 | 16.1 | 0.00 | 0.00 | 0.00 | 85 | 1015.9 |
| 20260502160905 | 18 | 77 | 6.4 | 20.9 | 0.00 | 0.00 | 0.00 | 85 | 1015.9 |
| 20260502160806 | 18 | 102 | 6.4 | 20.9 | 0.00 | 0.00 | 0.00 | 85 | 1015.9 |
| 20260502160607 | 18 | 335 | 6.4 | 20.9 | 0.00 | 0.00 | 0.00 | 85 | 1016.0 |
| 20260502160511 | 18 | 117 | 8.0 | 20.9 | 0.00 | 0.00 | 0.00 | 85 | 1016.0 |
| 20260502160407 | 18 | 116 | 8.0 | 20.9 | 0.00 | 0.00 | 0.00 | 85 | 1016.1 |
| 20260502160307 | 18 | 88 | 8.0 | 20.9 | 0.00 | 0.00 | 0.00 | 85 | 1016.3 |
| 20260502160206 | 18 | 137 | 9.7 | 20.9 | 0.00 | 0.00 | 0.00 | 85 | 1016.3 |
| 20260502152106 | 19 | 199 | 8.0 | 20.9 | 0.00 | 0.00 | 0.00 | 84 | 1016.4 |
| 20260502152008 | 19 | 164 | 8.0 | 20.9 | 0.00 | 0.00 | 0.00 | 84 | 1016.5 |
| 20260502151806 | 19 | 105 | 8.0 | 20.9 | 0.00 | 0.00 | 0.00 | 84 | 1016.6 |
| 20260502151705 | 19 | 210 | 8.0 | 20.9 | 0.00 | 0.00 | 0.00 | 83 | 1016.7 |
| 20260502151606 | 19 | 114 | 8.0 | 20.9 | 0.00 | 0.00 | 0.00 | 83 | 1016.6 |
| 20260502151507 | 19 | 127 | 6.4 | 20.9 | 0.00 | 0.00 | 0.00 | 83 | 1016.8 |
| 20260502151405 | 19 | 104 | 6.4 | 19.3 | 0.00 | 0.00 | 0.00 | 84 | 1016.7 |
| 20260502151305 | 19 | 170 | 6.4 | 16.1 | 0.00 | 0.00 | 0.00 | 84 | 1016.8 |
| 20260502151205 | 19 | 104 | 6.4 | 16.1 | 0.00 | 0.00 | 0.00 | 84 | 1016.8 |
| 20260502151106 | 19 | 85 | 6.4 | 16.1 | 0.00 | 0.00 | 0.00 | 84 | 1016.8 |
| 20260502151008 | 19 | 140 | 8.0 | 16.1 | 0.00 | 0.00 | 0.00 | 84 | 1016.8 |
| 20260502150906 | 19 | 25 | 8.0 | 16.1 | 0.00 | 0.00 | 0.00 | 83 | 1016.9 |
| 20260502150705 | 19 | 347 | 8.0 | 16.1 | 0.00 | 0.00 | 0.00 | 84 | 1016.7 |
| 20260502150509 | 19 | 122 | 8.0 | 16.1 | 0.00 | 0.00 | 0.00 | 84 | 1016.7 |
| 20260502150404 | 19 | 65 | 8.0 | 16.1 | 0.00 | 0.00 | 0.00 | 84 | 1016.8 |
| 20260502150305 | 19 | 149 | 8.0 | 16.1 | 0.00 | 0.00 | 0.00 | 84 | 1016.8 |
| 20260502150106 | 19 | 127 | 8.0 | 16.1 | 0.00 | 0.00 | 0.00 | 84 | 1016.9 |
| 20260502140106 | 18 | 93 | 9.7 | 24.1 | 0.00 | 0.00 | 0.00 | 84 | 1017.7 |
| 20260502130705 | 18 | 60 | 8.0 | 20.9 | 0.00 | 0.00 | 0.00 | 85 | 1018.1 |
| 20260502130606 | 18 | 78 | 8.0 | 20.9 | 0.00 | 0.00 | 0.00 | 85 | 1018.2 |
| 20260502130306 | 18 | 77 | 8.0 | 20.9 | 0.00 | 0.00 | 0.00 | 85 | 1018.2 |
| 20260502130205 | 18 | 68 | 8.0 | 20.9 | 0.00 | 0.00 | 0.00 | 85 | 1018.3 |
| 20260502123807 | 18 | 79 | 6.4 | 17.7 | 0.00 | 0.00 | 0.00 | 85 | 1018.3 |
| 20260502123705 | 18 | 104 | 6.4 | 16.1 | 0.00 | 0.00 | 0.00 | 85 | 1018.3 |
| 20260502123405 | 18 | 86 | 6.4 | 16.1 | 0.00 | 0.00 | 0.00 | 85 | 1018.3 |
| 20260502123206 | 18 | 104 | 8.0 | 17.7 | 0.00 | 0.00 | 0.00 | 86 | 1018.4 |
| 20260502123009 | 18 | 105 | 8.0 | 17.7 | 0.00 | 0.00 | 0.00 | 86 | 1018.4 |
| 20260502122905 | 18 | 109 | 9.7 | 17.7 | 0.00 | 0.00 | 0.00 | 86 | 1018.4 |
| 20260502122806 | 18 | 33 | 9.7 | 17.7 | 0.00 | 0.00 | 0.00 | 87 | 1018.5 |
| 20260502122706 | 18 | 79 | 9.7 | 17.7 | 0.00 | 0.00 | 0.00 | 86 | 1018.4 |
| 20260502122604 | 18 | 148 | 9.7 | 17.7 | 0.00 | 0.00 | 0.00 | 86 | 1018.4 |
| 20260502122507 | 18 | 91 | 9.7 | 17.7 | 0.00 | 0.00 | 0.00 | 86 | 1018.4 |
| 20260502122405 | 18 | 106 | 9.7 | 17.7 | 0.00 | 0.00 | 0.00 | 86 | 1018.4 |
| 20260502122306 | 18 | 41 | 9.7 | 17.7 | 0.00 | 0.00 | 0.00 | 86 | 1018.4 |
| 20260502122207 | 18 | 91 | 9.7 | 19.3 | 0.00 | 0.00 | 0.00 | 86 | 1018.4 |
| 20260502122105 | 18 | 66 | 9.7 | 19.3 | 0.00 | 0.00 | 0.00 | 86 | 1018.4 |
| 20260502122007 | 18 | 125 | 9.7 | 19.3 | 0.00 | 0.00 | 0.00 | 86 | 1018.5 |
| 20260502121906 | 18 | 63 | 9.7 | 19.3 | 0.00 | 0.00 | 0.00 | 86 | 1018.4 |
| 20260502121805 | 18 | 115 | 9.7 | 19.3 | 0.00 | 0.00 | 0.00 | 86 | 1018.5 |
| 20260502121705 | 18 | 111 | 9.7 | 19.3 | 0.00 | 0.00 | 0.00 | 86 | 1018.4 |
| 20260502121607 | 18 | 341 | 8.0 | 19.3 | 0.00 | 0.00 | 0.00 | 86 | 1018.5 |
| 20260502121508 | 18 | 287 | 8.0 | 19.3 | 0.00 | 0.00 | 0.00 | 86 | 1018.5 |
| 20260502121405 | 18 | 156 | 8.0 | 19.3 | 0.00 | 0.00 | 0.00 | 86 | 1018.4 |
| 20260502121105 | 18 | 162 | 6.4 | 19.3 | 0.00 | 0.00 | 0.00 | 86 | 1018.4 |
| 20260502121007 | 19 | 129 | 6.4 | 19.3 | 0.00 | 0.00 | 0.00 | 86 | 1018.4 |
| 20260502120805 | 19 | 123 | 6.4 | 17.7 | 0.00 | 0.00 | 0.00 | 86 | 1018.5 |
| 20260502120705 | 19 | 193 | 6.4 | 19.3 | 0.00 | 0.00 | 0.00 | 86 | 1018.4 |
| 20260502120506 | 18 | 194 | 6.4 | 19.3 | 0.00 | 0.00 | 0.00 | 86 | 1018.5 |
| 20260502120405 | 18 | 150 | 6.4 | 19.3 | 0.00 | 0.00 | 0.00 | 86 | 1018.4 |
| 20260502120106 | 18 | 77 | 8.0 | 19.3 | 0.00 | 0.00 | 0.00 | 87 | 1018.5 |
| 20260502115904 | 18 | 80 | 8.0 | 19.3 | 0.00 | 0.00 | 0.00 | 86 | 1018.4 |
| 20260502115806 | 18 | 74 | 8.0 | 17.7 | 0.00 | 0.00 | 0.00 | 87 | 1018.4 |
| 20260502115506 | 18 | 140 | 9.7 | 19.3 | 0.00 | 0.00 | 0.00 | 87 | 1018.4 |
| 20260502115404 | 18 | 97 | 9.7 | 19.3 | 0.00 | 0.00 | 0.00 | 86 | 1018.4 |
| 20260502115306 | 18 | 99 | 9.7 | 19.3 | 0.00 | 0.00 | 0.00 | 87 | 1018.4 |
| 20260502115206 | 18 | 120 | 9.7 | 19.3 | 0.00 | 0.00 | 0.00 | 87 | 1018.4 |
| 20260502115007 | 18 | 83 | 11.3 | 20.9 | 0.00 | 0.00 | 0.00 | 87 | 1018.4 |
| 20260502114905 | 18 | 170 | 11.3 | 20.9 | 0.00 | 0.00 | 0.00 | 86 | 1018.4 |
| 20260502114805 | 18 | 72 | 11.3 | 20.9 | 0.00 | 0.00 | 0.00 | 86 | 1018.4 |
| 20260502114705 | 18 | 330 | 9.7 | 20.9 | 0.00 | 0.00 | 0.00 | 87 | 1018.4 |
| 20260502114605 | 18 | 131 | 9.7 | 20.9 | 0.00 | 0.00 | 0.00 | 87 | 1018.4 |
| 20260502114507 | 18 | 86 | 9.7 | 20.9 | 0.00 | 0.00 | 0.00 | 86 | 1018.5 |
| 20260502114305 | 18 | 118 | 8.0 | 20.9 | 0.00 | 0.00 | 0.00 | 86 | 1018.4 |
| 20260502114206 | 19 | 109 | 8.0 | 20.9 | 0.00 | 0.00 | 0.00 | 86 | 1018.4 |
| 20260502114110 | 19 | 85 | 8.0 | 19.3 | 0.00 | 0.00 | 0.00 | 86 | 1018.4 |
| 20260502113906 | 19 | 116 | 6.4 | 19.3 | 0.00 | 0.00 | 0.00 | 87 | 1018.4 |
| 20260502113806 | 19 | 131 | 6.4 | 19.3 | 0.00 | 0.00 | 0.00 | 87 | 1018.5 |
| 20260502113705 | 18 | 81 | 8.0 | 19.3 | 0.00 | 0.00 | 0.00 | 87 | 1018.5 |
| 20260502113607 | 18 | 94 | 8.0 | 19.3 | 0.00 | 0.00 | 0.00 | 87 | 1018.5 |
| 20260502113509 | 18 | 158 | 8.0 | 19.3 | 0.00 | 0.00 | 0.00 | 86 | 1018.5 |
| 20260502113405 | 18 | 69 | 8.0 | 19.3 | 0.00 | 0.00 | 0.00 | 86 | 1018.6 |
| 20260502113207 | 18 | 51 | 8.0 | 19.3 | 0.00 | 0.00 | 0.00 | 86 | 1018.6 |
| 20260502113107 | 18 | 91 | 6.4 | 19.3 | 0.00 | 0.00 | 0.00 | 86 | 1018.6 |
| 20260502113008 | 18 | 127 | 6.4 | 16.1 | 0.00 | 0.00 | 0.00 | 87 | 1018.6 |
| 20260502112908 | 18 | 95 | 6.4 | 16.1 | 0.00 | 0.00 | 0.00 | 87 | 1018.6 |
| 20260502112806 | 18 | 120 | 6.4 | 16.1 | 0.00 | 0.00 | 0.00 | 87 | 1018.6 |
| 20260502112605 | 18 | 106 | 6.4 | 16.1 | 0.00 | 0.00 | 0.00 | 87 | 1018.8 |
| 20260502112508 | 19 | 104 | 4.8 | 16.1 | 0.00 | 0.00 | 0.00 | 87 | 1018.8 |
| 20260502112406 | 19 | 72 | 4.8 | 16.1 | 0.00 | 0.00 | 0.00 | 87 | 1018.8 |
| 20260502112306 | 18 | 83 | 4.8 | 16.1 | 0.00 | 0.00 | 0.00 | 87 | 1018.8 |
| 20260502112205 | 18 | 58 | 4.8 | 16.1 | 0.00 | 0.00 | 0.00 | 87 | 1018.8 |
| 20260502111906 | 18 | 68 | 4.8 | 17.7 | 0.00 | 0.00 | 0.00 | 87 | 1018.7 |
| 20260502111806 | 18 | 2 | 4.8 | 17.7 | 0.00 | 0.00 | 0.00 | 87 | 1018.8 |
| 20260502111606 | 18 | 169 | 4.8 | 17.7 | 0.00 | 0.00 | 0.00 | 87 | 1018.8 |
| 20260502111507 | 18 | 184 | 6.4 | 17.7 | 0.00 | 0.00 | 0.00 | 87 | 1018.9 |
| 20260502111405 | 18 | 330 | 6.4 | 17.7 | 0.00 | 0.00 | 0.00 | 87 | 1018.8 |
| 20260502111306 | 18 | 99 | 6.4 | 17.7 | 0.00 | 0.00 | 0.00 | 87 | 1018.9 |
| 20260502111205 | 18 | 101 | 8.0 | 17.7 | 0.00 | 0.00 | 0.00 | 87 | 1018.8 |
| 20260502111107 | 18 | 101 | 8.0 | 17.7 | 0.00 | 0.00 | 0.00 | 87 | 1018.8 |
| 20260502110905 | 18 | 150 | 8.0 | 17.7 | 0.00 | 0.00 | 0.00 | 87 | 1018.8 |
| 20260502110705 | 18 | 83 | 6.4 | 17.7 | 0.00 | 0.00 | 0.00 | 87 | 1018.8 |
| 20260502110506 | 18 | 165 | 4.8 | 17.7 | 0.00 | 0.00 | 0.00 | 88 | 1018.8 |
| 20260502110406 | 18 | 126 | 4.8 | 17.7 | 0.00 | 0.00 | 0.00 | 88 | 1018.8 |
| 20260502110305 | 18 | 87 | 3.2 | 17.7 | 0.00 | 0.00 | 0.00 | 88 | 1019.0 |
| 20260502110205 | 18 | 101 | 3.2 | 14.5 | 0.00 | 0.00 | 0.00 | 88 | 1018.9 |
| 20260502110105 | 18 | 106 | 3.2 | 14.5 | 0.00 | 0.00 | 0.00 | 88 | 1019.0 |
| 20260502110008 | 18 | 32 | 3.2 | 14.5 | 0.00 | 0.00 | 0.00 | 88 | 1019.1 |
| 20260502105905 | 18 | 108 | 3.2 | 14.5 | 0.00 | 0.00 | 0.00 | 88 | 1019.1 |
| 20260502105805 | 18 | 221 | 3.2 | 11.3 | 0.00 | 0.00 | 0.00 | 88 | 1019.2 |
| 20260502105706 | 18 | 110 | 3.2 | 11.3 | 0.00 | 0.00 | 0.00 | 88 | 1019.1 |
| 20260502105508 | 18 | 195 | 3.2 | 11.3 | 0.00 | 0.00 | 0.00 | 88 | 1019.1 |
| 20260502105405 | 18 | 88 | 3.2 | 11.3 | 0.00 | 0.00 | 0.00 | 88 | 1019.1 |
| 20260502105306 | 18 | 77 | 3.2 | 8.0 | 0.00 | 0.00 | 0.00 | 88 | 1019.1 |
| 20260502105104 | 18 | 97 | 4.8 | 9.7 | 0.00 | 0.00 | 0.00 | 88 | 1019.1 |
| 20260502105007 | 18 | 127 | 4.8 | 9.7 | 0.00 | 0.00 | 0.00 | 88 | 1019.1 |
| 20260502104906 | 18 | 79 | 4.8 | 9.7 | 0.00 | 0.00 | 0.00 | 88 | 1019.1 |
| 20260502104605 | 18 | 82 | 6.4 | 11.3 | 0.00 | 0.00 | 0.00 | 88 | 1019.0 |
| 20260502104506 | 18 | 46 | 6.4 | 11.3 | 0.00 | 0.00 | 0.00 | 88 | 1019.1 |
| 20260502104405 | 18 | 60 | 8.0 | 11.3 | 0.00 | 0.00 | 0.00 | 88 | 1019.0 |
| 20260502104305 | 18 | 54 | 8.0 | 11.3 | 0.00 | 0.00 | 0.00 | 88 | 1019.1 |
| 20260502104205 | 18 | 51 | 8.0 | 11.3 | 0.00 | 0.00 | 0.00 | 88 | 1019.0 |
| 20260502104105 | 18 | 66 | 8.0 | 11.3 | 0.00 | 0.00 | 0.00 | 87 | 1019.0 |
| 20260502104008 | 18 | 112 | 8.0 | 11.3 | 0.00 | 0.00 | 0.00 | 87 | 1019.1 |
| 20260502103906 | 18 | 64 | 8.0 | 12.9 | 0.00 | 0.00 | 0.00 | 87 | 1019.1 |
| 20260502103805 | 18 | 49 | 8.0 | 12.9 | 0.00 | 0.00 | 0.00 | 87 | 1019.0 |
| 20260502103705 | 18 | 58 | 8.0 | 12.9 | 0.00 | 0.00 | 0.00 | 87 | 1019.1 |
| 20260502103605 | 18 | 81 | 8.0 | 12.9 | 0.00 | 0.00 | 0.00 | 87 | 1019.2 |
| 20260502103507 | 18 | 77 | 8.0 | 12.9 | 0.00 | 0.00 | 0.00 | 87 | 1019.2 |
| 20260502103405 | 18 | 83 | 8.0 | 12.9 | 0.00 | 0.00 | 0.00 | 87 | 1019.1 |
| 20260502103304 | 18 | 73 | 9.7 | 14.5 | 0.00 | 0.00 | 0.00 | 87 | 1019.2 |
| 20260502103204 | 18 | 68 | 9.7 | 14.5 | 0.00 | 0.00 | 0.00 | 87 | 1019.2 |
| 20260502103105 | 18 | 77 | 9.7 | 14.5 | 0.00 | 0.00 | 0.00 | 87 | 1019.1 |
| 20260502103007 | 18 | 73 | 9.7 | 17.7 | 0.00 | 0.00 | 0.00 | 87 | 1019.1 |
| 20260502102905 | 18 | 67 | 9.7 | 17.7 | 0.00 | 0.00 | 0.00 | 87 | 1019.1 |
| 20260502102806 | 18 | 83 | 11.3 | 17.7 | 0.00 | 0.00 | 0.00 | 87 | 1019.2 |
| 20260502102705 | 18 | 33 | 11.3 | 17.7 | 0.00 | 0.00 | 0.00 | 87 | 1019.2 |
| 20260502102605 | 18 | 62 | 11.3 | 17.7 | 0.00 | 0.00 | 0.00 | 86 | 1019.2 |
| 20260502102306 | 18 | 66 | 11.3 | 17.7 | 0.00 | 0.00 | 0.00 | 86 | 1019.2 |
| 20260502102207 | 18 | 64 | 11.3 | 17.7 | 0.00 | 0.00 | 0.00 | 86 | 1019.2 |
| 20260502102106 | 18 | 61 | 11.3 | 17.7 | 0.00 | 0.00 | 0.00 | 86 | 1019.2 |
| 20260502102006 | 18 | 55 | 9.7 | 16.1 | 0.00 | 0.00 | 0.00 | 86 | 1019.2 |
| 20260502101904 | 18 | 61 | 9.7 | 16.1 | 0.00 | 0.00 | 0.00 | 86 | 1019.2 |
| 20260502101804 | 18 | 63 | 9.7 | 16.1 | 0.00 | 0.00 | 0.00 | 86 | 1019.2 |
| 20260502101705 | 18 | 75 | 9.7 | 16.1 | 0.00 | 0.00 | 0.00 | 86 | 1019.2 |
| 20260502101606 | 18 | 96 | 8.0 | 16.1 | 0.00 | 0.00 | 0.00 | 86 | 1019.3 |
| 20260502101506 | 18 | 61 | 8.0 | 16.1 | 0.00 | 0.00 | 0.00 | 86 | 1019.2 |
| 20260502101406 | 18 | 57 | 8.0 | 16.1 | 0.00 | 0.00 | 0.00 | 86 | 1019.3 |
| 20260502101305 | 18 | 76 | 8.0 | 16.1 | 0.00 | 0.00 | 0.00 | 85 | 1019.2 |
| 20260502101105 | 18 | 66 | 6.4 | 16.1 | 0.00 | 0.00 | 0.00 | 86 | 1019.1 |
| 20260502101008 | 18 | 76 | 4.8 | 14.5 | 0.00 | 0.00 | 0.00 | 85 | 1019.1 |
| 20260502100904 | 18 | 64 | 4.8 | 12.9 | 0.00 | 0.00 | 0.00 | 85 | 1019.2 |
| 20260502100805 | 18 | 69 | 4.8 | 12.9 | 0.00 | 0.00 | 0.00 | 86 | 1019.2 |
| 20260502100705 | 18 | 54 | 4.8 | 9.7 | 0.00 | 0.00 | 0.00 | 86 | 1019.1 |
| 20260502100605 | 18 | 25 | 4.8 | 9.7 | 0.00 | 0.00 | 0.00 | 85 | 1019.1 |
| 20260502100506 | 18 | 60 | 4.8 | 9.7 | 0.00 | 0.00 | 0.00 | 85 | 1019.2 |
| 20260502100305 | 18 | 68 | 3.2 | 9.7 | 0.00 | 0.00 | 0.00 | 85 | 1019.2 |
| 20260502100105 | 18 | 80 | 3.2 | 9.7 | 0.00 | 0.00 | 0.00 | 85 | 1019.2 |
| 20260502091507 | 18 | 54 | 3.2 | 9.7 | 0.00 | 0.00 | 0.00 | 88 | 1019.4 |
| 20260502091407 | 18 | 25 | 3.2 | 9.7 | 0.00 | 0.00 | 0.00 | 88 | 1019.4 |
| 20260502091305 | 18 | 66 | 3.2 | 9.7 | 0.00 | 0.00 | 0.00 | 87 | 1019.5 |
| 20260502091008 | 18 | 82 | 3.2 | 9.7 | 0.00 | 0.00 | 0.00 | 87 | 1019.4 |
| 20260502090906 | 18 | 31 | 3.2 | 6.4 | 0.00 | 0.00 | 0.00 | 88 | 1019.4 |
| 20260502090806 | 18 | 62 | 1.6 | 6.4 | 0.00 | 0.00 | 0.00 | 88 | 1019.4 |
| 20260502090708 | 18 | 62 | 3.2 | 6.4 | 0.00 | 0.00 | 0.00 | 88 | 1019.5 |
| 20260502090606 | 18 | 25 | 3.2 | 6.4 | 0.00 | 0.00 | 0.00 | 88 | 1019.4 |
| 20260502090407 | 18 | 58 | 3.2 | 6.4 | 0.00 | 0.00 | 0.00 | 88 | 1019.5 |
| 20260502090306 | 18 | 112 | 3.2 | 6.4 | 0.00 | 0.00 | 0.00 | 88 | 1019.5 |
| 20260502090206 | 18 | 146 | 3.2 | 6.4 | 0.00 | 0.00 | 0.00 | 88 | 1019.4 |
| 20260502090108 | 18 | 93 | 3.2 | 6.4 | 0.00 | 0.00 | 0.00 | 88 | 1019.4 |
| 20260502080105 | 18 | 68 | 3.2 | 6.4 | 0.00 | 0.00 | 0.00 | 85 | 1019.5 |
| 20260502071508 | 18 | 254 | 1.6 | 3.2 | 0.00 | 0.00 | 0.00 | 88 | 1019.4 |
| 20260502071406 | 18 | 254 | 1.6 | 4.8 | 0.00 | 0.00 | 0.00 | 88 | 1019.5 |
| 20260502071306 | 18 | 254 | 1.6 | 4.8 | 0.00 | 0.00 | 0.00 | 88 | 1019.4 |
| 20260502071207 | 18 | 254 | 1.6 | 4.8 | 0.00 | 0.00 | 0.00 | 88 | 1019.4 |
| 20260502071106 | 18 | 254 | 1.6 | 4.8 | 0.00 | 0.00 | 0.00 | 87 | 1019.4 |
| 20260502070905 | 17 | 254 | 1.6 | 4.8 | 0.00 | 0.00 | 0.00 | 87 | 1019.3 |
| 20260502070805 | 17 | 254 | 0.0 | 4.8 | 0.00 | 0.00 | 0.00 | 87 | 1019.4 |
| 20260502070704 | 17 | 254 | 0.0 | 4.8 | 0.00 | 0.00 | 0.00 | 87 | 1019.4 |
| 20260502070604 | 17 | 254 | 0.0 | 4.8 | 0.00 | 0.00 | 0.00 | 87 | 1019.4 |
| 20260502070507 | 17 | 254 | 0.0 | 4.8 | 0.00 | 0.00 | 0.00 | 88 | 1019.4 |
| 20260502070313 | 17 | 254 | 0.0 | 0.0 | 0.00 | 0.00 | 0.00 | 88 | 1019.4 |
| 20260502070206 | 17 | 254 | 0.0 | 0.0 | 0.00 | 0.00 | 0.00 | 88 | 1019.4 |
| 20260502070105 | 17 | 254 | 0.0 | 0.0 | 0.00 | 0.00 | 0.00 | 88 | 1019.4 |
| 20260502070009 | 17 | 254 | 0.0 | 0.0 | 0.00 | 0.00 | 0.00 | 88 | 1019.4 |
| 20260502065912 | 17 | 254 | 0.0 | 0.0 | 0.00 | 0.08 | 0.00 | 88 | 1019.4 |
| 20260502065712 | 17 | 254 | 0.0 | 1.6 | 0.00 | 0.08 | 0.00 | 88 | 1019.4 |
| 20260502065605 | 17 | 254 | 0.0 | 3.2 | 0.00 | 0.08 | 0.00 | 88 | 1019.4 |
| 20260502065509 | 17 | 254 | 0.0 | 3.2 | 0.00 | 0.08 | 0.00 | 88 | 1019.4 |
| 20260502065412 | 17 | 254 | 0.0 | 3.2 | 0.00 | 0.08 | 0.00 | 88 | 1019.4 |
| 20260502065306 | 17 | 254 | 0.0 | 3.2 | 0.00 | 0.08 | 0.00 | 88 | 1019.4 |
| 20260502065213 | 17 | 254 | 1.6 | 3.2 | 0.00 | 0.08 | 0.00 | 88 | 1019.4 |
| 20260502065104 | 17 | 254 | 1.6 | 3.2 | 0.00 | 0.08 | 0.00 | 88 | 1019.4 |
| 20260502065007 | 17 | 254 | 1.6 | 3.2 | 0.00 | 0.08 | 0.00 | 88 | 1019.4 |
| 20260502064905 | 17 | 254 | 1.6 | 4.8 | 0.00 | 0.08 | 0.00 | 88 | 1019.4 |
| 20260502064805 | 17 | 254 | 1.6 | 4.8 | 0.00 | 0.08 | 0.00 | 88 | 1019.4 |
| 20260502064705 | 17 | 254 | 1.6 | 4.8 | 0.00 | 0.08 | 0.00 | 88 | 1019.4 |
| 20260502064606 | 17 | 254 | 1.6 | 4.8 | 0.00 | 0.08 | 0.00 | 88 | 1019.5 |
| 20260502064507 | 17 | 254 | 1.6 | 4.8 | 0.00 | 0.08 | 0.00 | 88 | 1019.5 |
| 20260502064312 | 17 | 254 | 1.6 | 4.8 | 0.00 | 0.08 | 0.00 | 88 | 1019.5 |
| 20260502064212 | 17 | 254 | 1.6 | 4.8 | 0.00 | 0.08 | 0.00 | 88 | 1019.5 |
| 20260502064105 | 17 | 254 | 1.6 | 4.8 | 0.00 | 0.08 | 0.00 | 88 | 1019.5 |
| 20260502064031 | 17 | 254 | 1.6 | 4.8 | 0.00 | 0.08 | 0.00 | 88 | 1019.5 |
| 20260502063806 | 17 | 254 | 1.6 | 6.4 | 0.00 | 0.08 | 0.00 | 88 | 1019.5 |
| 20260502063604 | 17 | 254 | 3.2 | 9.7 | 0.00 | 0.08 | 0.00 | 88 | 1019.5 |
| 20260502063306 | 17 | 315 | 3.2 | 9.7 | 0.00 | 0.08 | 0.00 | 88 | 1019.5 |
| 20260502063205 | 17 | 213 | 3.2 | 9.7 | 0.00 | 0.08 | 0.00 | 88 | 1019.5 |
| 20260502063104 | 17 | 209 | 3.2 | 9.7 | 0.00 | 0.08 | 0.00 | 88 | 1019.5 |
| 20260502063009 | 17 | 316 | 4.8 | 9.7 | 0.00 | 0.08 | 0.00 | 88 | 1019.6 |
| 20260502062912 | 17 | 291 | 4.8 | 9.7 | 0.00 | 0.08 | 0.00 | 88 | 1019.6 |
| 20260502062804 | 17 | 330 | 3.2 | 9.7 | 0.00 | 0.08 | 0.00 | 89 | 1019.6 |
| 20260502062706 | 17 | 235 | 3.2 | 9.7 | 0.00 | 0.08 | 0.00 | 89 | 1019.6 |
| 20260502062508 | 17 | 238 | 4.8 | 9.7 | 0.00 | 0.08 | 0.00 | 89 | 1019.6 |
| 20260502062405 | 17 | 210 | 4.8 | 9.7 | 0.00 | 0.08 | 0.00 | 89 | 1019.7 |
| 20260502062306 | 17 | 321 | 4.8 | 9.7 | 0.00 | 0.08 | 0.00 | 89 | 1019.7 |
| 20260502062106 | 17 | 343 | 4.8 | 9.7 | 0.00 | 0.08 | 0.00 | 89 | 1019.6 |
| 20260502062008 | 17 | 348 | 3.2 | 9.7 | 0.00 | 0.08 | 0.00 | 89 | 1019.6 |
| 20260502061905 | 17 | 248 | 3.2 | 8.0 | 0.00 | 0.08 | 0.00 | 89 | 1019.6 |
| 20260502061707 | 17 | 243 | 3.2 | 8.0 | 0.00 | 0.08 | 0.00 | 89 | 1019.7 |
| 20260502061607 | 17 | 231 | 3.2 | 8.0 | 0.00 | 0.08 | 0.00 | 89 | 1019.6 |
| 20260502061508 | 17 | 308 | 3.2 | 8.0 | 0.00 | 0.08 | 0.00 | 89 | 1019.5 |
| 20260502061405 | 17 | 340 | 3.2 | 8.0 | 0.00 | 0.08 | 0.00 | 88 | 1019.5 |
| 20260502061206 | 17 | 335 | 3.2 | 4.8 | 0.00 | 0.08 | 0.00 | 89 | 1019.6 |
| 20260502061106 | 17 | 347 | 3.2 | 6.4 | 0.00 | 0.08 | 0.00 | 88 | 1019.5 |
| 20260502060908 | 17 | 242 | 3.2 | 6.4 | 0.00 | 0.08 | 0.00 | 88 | 1019.5 |
| 20260502060706 | 17 | 272 | 1.6 | 6.4 | 0.00 | 0.08 | 0.00 | 88 | 1019.5 |
| 20260502060507 | 17 | 272 | 3.2 | 6.4 | 0.00 | 0.08 | 0.00 | 88 | 1019.5 |
| 20260502060407 | 17 | 272 | 3.2 | 6.4 | 0.00 | 0.08 | 0.00 | 88 | 1019.5 |
| 20260502060304 | 17 | 306 | 1.6 | 6.4 | 0.00 | 0.08 | 0.00 | 88 | 1019.4 |
| 20260502060205 | 17 | 344 | 1.6 | 6.4 | 0.00 | 0.08 | 0.00 | 88 | 1019.5 |
| 20260502060108 | 17 | 213 | 1.6 | 4.8 | 0.00 | 0.08 | 0.00 | 88 | 1019.5 |
| 20260502055706 | 17 | 1 | 3.2 | 6.4 | 0.00 | 0.15 | 0.00 | 88 | 1019.2 |
| 20260502055604 | 17 | 1 | 1.6 | 6.4 | 0.00 | 0.15 | 0.00 | 88 | 1019.2 |
| 20260502055507 | 17 | 357 | 3.2 | 6.4 | 0.00 | 0.15 | 0.00 | 88 | 1019.2 |
| 20260502055405 | 17 | 257 | 3.2 | 6.4 | 0.00 | 0.15 | 0.00 | 88 | 1019.2 |
| 20260502055306 | 17 | 358 | 3.2 | 6.4 | 0.00 | 0.15 | 0.00 | 88 | 1019.2 |
| 20260502055204 | 17 | 339 | 3.2 | 6.4 | 0.00 | 0.15 | 0.00 | 88 | 1019.2 |
| 20260502055105 | 17 | 320 | 3.2 | 6.4 | 0.00 | 0.15 | 0.00 | 88 | 1019.2 |
| 20260502054906 | 17 | 227 | 3.2 | 4.8 | 0.00 | 0.15 | 0.00 | 88 | 1019.3 |
| 20260502054804 | 17 | 252 | 1.6 | 4.8 | 0.00 | 0.15 | 0.00 | 88 | 1019.3 |
| 20260502054704 | 17 | 298 | 1.6 | 4.8 | 0.00 | 0.15 | 0.00 | 88 | 1019.3 |
| 20260502054604 | 17 | 349 | 1.6 | 4.8 | 0.00 | 0.15 | 0.00 | 88 | 1019.3 |
| 20260502054507 | 17 | 345 | 1.6 | 4.8 | 0.00 | 0.15 | 0.00 | 88 | 1019.3 |
| 20260502054405 | 17 | 250 | 1.6 | 4.8 | 0.00 | 0.15 | 0.00 | 88 | 1019.2 |
| 20260502054304 | 17 | 241 | 1.6 | 4.8 | 0.00 | 0.15 | 0.00 | 88 | 1019.4 |
| 20260502054206 | 17 | 247 | 1.6 | 4.8 | 0.00 | 0.15 | 0.00 | 88 | 1019.2 |
| 20260502054106 | 17 | 254 | 1.6 | 4.8 | 0.00 | 0.15 | 0.00 | 88 | 1019.2 |
| 20260502053906 | 17 | 325 | 1.6 | 4.8 | 0.00 | 0.15 | 0.00 | 88 | 1019.3 |
| 20260502053804 | 17 | 249 | 1.6 | 4.8 | 0.00 | 0.15 | 0.00 | 88 | 1019.2 |
| 20260502053706 | 17 | 223 | 1.6 | 4.8 | 0.00 | 0.15 | 0.00 | 88 | 1019.2 |
| 20260502053606 | 17 | 6 | 1.6 | 4.8 | 0.00 | 0.15 | 0.00 | 88 | 1019.2 |
| 20260502053508 | 17 | 274 | 1.6 | 4.8 | 0.00 | 0.15 | 0.00 | 88 | 1019.2 |
| 20260502053305 | 17 | 251 | 1.6 | 4.8 | 0.00 | 0.15 | 0.00 | 88 | 1019.2 |
| 20260502053206 | 17 | 272 | 1.6 | 4.8 | 0.00 | 0.15 | 0.00 | 88 | 1019.1 |
| 20260502053107 | 17 | 272 | 1.6 | 4.8 | 0.00 | 0.15 | 0.00 | 88 | 1019.2 |
| 20260502052805 | 17 | 341 | 1.6 | 4.8 | 0.00 | 0.15 | 0.00 | 88 | 1019.2 |
| 20260502052706 | 17 | 341 | 0.0 | 4.8 | 0.00 | 0.15 | 0.00 | 88 | 1019.2 |
| 20260502052605 | 17 | 276 | 0.0 | 4.8 | 0.00 | 0.15 | 0.00 | 88 | 1019.1 |
| 20260502052506 | 17 | 243 | 0.0 | 4.8 | 0.00 | 0.15 | 0.00 | 88 | 1019.2 |
| 20260502052406 | 17 | 3 | 0.0 | 1.6 | 0.00 | 0.15 | 0.00 | 88 | 1019.1 |
| 20260502052306 | 17 | 3 | 0.0 | 1.6 | 0.00 | 0.15 | 0.00 | 88 | 1019.1 |
| 20260502052207 | 17 | 3 | 0.0 | 0.0 | 0.00 | 0.15 | 0.00 | 88 | 1019.1 |
| 20260502052007 | 17 | 3 | 0.0 | 0.0 | 0.00 | 0.15 | 0.00 | 88 | 1019.0 |
| 20260502051904 | 17 | 3 | 0.0 | 0.0 | 0.00 | 0.15 | 0.00 | 88 | 1019.0 |
| 20260502051806 | 17 | 3 | 0.0 | 0.0 | 0.00 | 0.15 | 0.00 | 88 | 1019.0 |
| 20260502051705 | 17 | 3 | 0.0 | 0.0 | 0.00 | 0.15 | 0.00 | 88 | 1019.0 |
| 20260502051605 | 17 | 3 | 0.0 | 0.0 | 0.00 | 0.15 | 0.00 | 88 | 1019.0 |
| 20260502051507 | 17 | 3 | 0.0 | 0.0 | 0.00 | 0.15 | 0.00 | 88 | 1019.0 |
| 20260502051405 | 17 | 3 | 0.0 | 1.6 | 0.00 | 0.15 | 0.00 | 88 | 1019.0 |
| 20260502051305 | 17 | 3 | 0.0 | 1.6 | 0.00 | 0.15 | 0.00 | 88 | 1018.9 |
| 20260502051105 | 17 | 3 | 0.0 | 3.2 | 0.00 | 0.15 | 0.00 | 88 | 1018.9 |
| 20260502051006 | 17 | 3 | 0.0 | 3.2 | 0.00 | 0.15 | 0.00 | 88 | 1019.0 |
| 20260502050804 | 17 | 3 | 0.0 | 3.2 | 0.00 | 0.15 | 0.00 | 88 | 1018.9 |
| 20260502050704 | 17 | 3 | 0.0 | 3.2 | 0.00 | 0.15 | 0.00 | 88 | 1018.9 |
| 20260502050604 | 17 | 3 | 0.0 | 3.2 | 0.00 | 0.15 | 0.00 | 88 | 1018.9 |
| 20260502050506 | 17 | 3 | 0.0 | 3.2 | 0.00 | 0.15 | 0.00 | 88 | 1019.0 |
| 20260502050305 | 17 | 3 | 0.0 | 3.2 | 0.00 | 0.15 | 0.00 | 88 | 1019.0 |
| 20260502050206 | 17 | 3 | 0.0 | 1.6 | 0.00 | 0.15 | 0.00 | 88 | 1019.0 |
| 20260502050105 | 17 | 3 | 0.0 | 3.2 | 0.00 | 0.15 | 0.00 | 89 | 1019.0 |
| 20260502045905 | 17 | 3 | 0.0 | 3.2 | 0.00 | 0.15 | 0.00 | 89 | 1018.9 |
| 20260502045804 | 17 | 3 | 0.0 | 3.2 | 0.00 | 0.15 | 0.00 | 89 | 1018.9 |
| 20260502045705 | 17 | 3 | 0.0 | 3.2 | 0.00 | 0.15 | 0.00 | 89 | 1019.0 |
| 20260502045604 | 17 | 3 | 0.0 | 3.2 | 0.00 | 0.15 | 0.00 | 89 | 1018.9 |
| 20260502045405 | 17 | 3 | 0.0 | 3.2 | 0.00 | 0.15 | 0.00 | 89 | 1018.9 |
| 20260502045306 | 17 | 3 | 0.0 | 3.2 | 0.00 | 0.15 | 0.00 | 89 | 1018.9 |
| 20260502045205 | 17 | 3 | 0.0 | 3.2 | 0.00 | 0.15 | 0.00 | 89 | 1018.9 |
| 20260502045107 | 17 | 3 | 0.0 | 1.6 | 0.00 | 0.15 | 0.00 | 89 | 1018.9 |
| 20260502045007 | 17 | 3 | 0.0 | 0.0 | 0.00 | 0.15 | 0.00 | 89 | 1019.0 |
| 20260502044807 | 17 | 3 | 0.0 | 0.0 | 0.00 | 0.15 | 0.00 | 89 | 1019.0 |
| 20260502044706 | 17 | 3 | 0.0 | 0.0 | 0.00 | 0.15 | 0.00 | 89 | 1018.9 |
| 20260502044604 | 17 | 3 | 0.0 | 0.0 | 0.00 | 0.15 | 0.00 | 89 | 1019.0 |
| 20260502044508 | 17 | 3 | 0.0 | 0.0 | 0.00 | 0.15 | 0.00 | 89 | 1019.0 |
| 20260502044405 | 17 | 3 | 0.0 | 0.0 | 0.00 | 0.15 | 0.00 | 89 | 1019.0 |
| 20260502044308 | 17 | 3 | 0.0 | 0.0 | 0.00 | 0.15 | 0.00 | 89 | 1019.0 |
| 20260502044208 | 17 | 3 | 0.0 | 0.0 | 0.00 | 0.15 | 0.00 | 89 | 1019.0 |
| 20260502044105 | 17 | 3 | 0.0 | 0.0 | 0.00 | 0.15 | 0.00 | 89 | 1019.0 |
| 20260502044008 | 17 | 3 | 0.0 | 0.0 | 0.00 | 0.15 | 0.00 | 89 | 1019.0 |
| 20260502043806 | 17 | 3 | 0.0 | 0.0 | 0.00 | 0.15 | 0.00 | 89 | 1019.1 |
| 20260502043705 | 17 | 3 | 0.0 | 0.0 | 0.00 | 0.15 | 0.00 | 89 | 1019.1 |
| 20260502043508 | 17 | 3 | 0.0 | 0.0 | 0.00 | 0.15 | 0.00 | 89 | 1019.1 |
| 20260502043406 | 17 | 3 | 0.0 | 1.6 | 0.00 | 0.15 | 0.00 | 89 | 1019.1 |
| 20260502043304 | 17 | 3 | 0.0 | 1.6 | 0.00 | 0.15 | 0.00 | 89 | 1019.1 |
| 20260502043204 | 17 | 3 | 0.0 | 1.6 | 0.00 | 0.15 | 0.00 | 89 | 1019.1 |
| 20260502043104 | 17 | 3 | 0.0 | 1.6 | 0.00 | 0.15 | 0.00 | 89 | 1019.1 |
| 20260502043007 | 17 | 260 | 0.0 | 3.2 | 0.00 | 0.15 | 0.00 | 89 | 1019.2 |
| 20260502042905 | 17 | 260 | 1.6 | 3.2 | 0.00 | 0.15 | 0.00 | 89 | 1019.1 |
| 20260502042804 | 17 | 260 | 1.6 | 3.2 | 0.00 | 0.15 | 0.00 | 89 | 1019.2 |
| 20260502042705 | 17 | 260 | 1.6 | 4.8 | 0.00 | 0.15 | 0.00 | 89 | 1019.2 |
| 20260502042608 | 17 | 260 | 1.6 | 6.4 | 0.00 | 0.15 | 0.00 | 89 | 1019.2 |
| 20260502042506 | 17 | 260 | 1.6 | 6.4 | 0.00 | 0.15 | 0.00 | 89 | 1019.2 |
| 20260502042206 | 17 | 335 | 3.2 | 6.4 | 0.00 | 0.15 | 0.00 | 89 | 1019.2 |
| 20260502042105 | 17 | 335 | 3.2 | 9.7 | 0.00 | 0.15 | 0.00 | 89 | 1019.2 |
| 20260502042006 | 17 | 335 | 3.2 | 9.7 | 0.00 | 0.15 | 0.00 | 89 | 1019.2 |
| 20260502041904 | 17 | 335 | 3.2 | 9.7 | 0.00 | 0.15 | 0.00 | 89 | 1019.2 |
| 20260502041804 | 17 | 314 | 3.2 | 9.7 | 0.00 | 0.15 | 0.00 | 89 | 1019.2 |
| 20260502041704 | 17 | 339 | 3.2 | 9.7 | 0.00 | 0.15 | 0.00 | 89 | 1019.2 |
| 20260502041604 | 17 | 330 | 4.8 | 9.7 | 0.00 | 0.15 | 0.00 | 89 | 1019.2 |
| 20260502041506 | 17 | 227 | 4.8 | 9.7 | 0.00 | 0.15 | 0.00 | 89 | 1019.2 |
| 20260502041405 | 17 | 325 | 4.8 | 12.9 | 0.00 | 0.15 | 0.00 | 89 | 1019.2 |
| 20260502041305 | 17 | 311 | 4.8 | 12.9 | 0.00 | 0.15 | 0.00 | 89 | 1019.2 |
| 20260502041104 | 17 | 262 | 6.4 | 12.9 | 0.00 | 0.15 | 0.00 | 89 | 1019.2 |
| 20260502041009 | 17 | 330 | 6.4 | 12.9 | 0.00 | 0.15 | 0.00 | 89 | 1019.2 |
| 20260502040805 | 17 | 314 | 6.4 | 12.9 | 0.00 | 0.15 | 0.00 | 89 | 1019.2 |
| 20260502040704 | 17 | 347 | 6.4 | 12.9 | 0.00 | 0.15 | 0.00 | 89 | 1019.2 |
| 20260502040507 | 17 | 247 | 6.4 | 12.9 | 0.00 | 0.15 | 0.00 | 89 | 1019.2 |
| 20260502040404 | 17 | 300 | 6.4 | 12.9 | 0.00 | 0.15 | 0.00 | 89 | 1019.3 |
| 20260502040304 | 17 | 308 | 6.4 | 12.9 | 0.00 | 0.15 | 0.00 | 89 | 1019.4 |
| 20260502040204 | 17 | 330 | 6.4 | 12.9 | 0.00 | 0.15 | 0.00 | 89 | 1019.4 |
| 20260502040106 | 17 | 344 | 6.4 | 12.9 | 0.00 | 0.15 | 0.00 | 89 | 1019.4 |
| 20260502035804 | 17 | 325 | 4.8 | 12.9 | 0.00 | 0.15 | 0.00 | 89 | 1019.5 |
| 20260502035705 | 17 | 313 | 4.8 | 12.9 | 0.00 | 0.15 | 0.00 | 89 | 1019.5 |
| 20260502035506 | 17 | 270 | 4.8 | 12.9 | 0.00 | 0.15 | 0.00 | 89 | 1019.5 |
| 20260502035404 | 17 | 347 | 4.8 | 12.9 | 0.00 | 0.15 | 0.00 | 89 | 1019.5 |
| 20260502035306 | 17 | 285 | 4.8 | 12.9 | 0.00 | 0.15 | 0.00 | 89 | 1019.5 |
| 20260502035205 | 17 | 257 | 4.8 | 12.9 | 0.00 | 0.15 | 0.00 | 89 | 1019.5 |
| 20260502035107 | 17 | 296 | 4.8 | 12.9 | 0.00 | 0.15 | 0.00 | 89 | 1019.5 |
| 20260502035007 | 17 | 311 | 4.8 | 11.3 | 0.00 | 0.15 | 0.00 | 89 | 1019.5 |
| 20260502034905 | 17 | 325 | 4.8 | 9.7 | 0.00 | 0.15 | 0.00 | 89 | 1019.5 |
| 20260502034804 | 17 | 335 | 4.8 | 9.7 | 0.00 | 0.15 | 0.00 | 89 | 1019.5 |
| 20260502034704 | 17 | 343 | 4.8 | 9.7 | 0.00 | 0.15 | 0.00 | 89 | 1019.5 |
| 20260502034606 | 17 | 272 | 4.8 | 9.7 | 0.00 | 0.15 | 0.00 | 89 | 1019.4 |
| 20260502034506 | 17 | 335 | 4.8 | 8.0 | 0.00 | 0.15 | 0.00 | 89 | 1019.5 |
| 20260502034404 | 17 | 205 | 4.8 | 8.0 | 0.00 | 0.15 | 0.00 | 89 | 1019.4 |
| 20260502034304 | 17 | 318 | 4.8 | 8.0 | 0.00 | 0.15 | 0.00 | 89 | 1019.4 |
| 20260502034205 | 17 | 236 | 4.8 | 8.0 | 0.00 | 0.15 | 0.00 | 89 | 1019.4 |
| 20260502034106 | 17 | 246 | 4.8 | 9.7 | 0.00 | 0.15 | 0.00 | 89 | 1019.5 |
| 20260502033908 | 17 | 335 | 4.8 | 9.7 | 0.00 | 0.15 | 0.00 | 89 | 1019.5 |
| 20260502033804 | 17 | 237 | 4.8 | 9.7 | 0.00 | 0.15 | 0.00 | 89 | 1019.5 |
| 20260502033705 | 17 | 330 | 4.8 | 9.7 | 0.00 | 0.15 | 0.00 | 89 | 1019.6 |
| 20260502033605 | 17 | 245 | 4.8 | 9.7 | 0.00 | 0.15 | 0.00 | 89 | 1019.5 |
| 20260502033507 | 17 | 262 | 4.8 | 9.7 | 0.00 | 0.15 | 0.00 | 89 | 1019.5 |
| 20260502033405 | 17 | 325 | 4.8 | 9.7 | 0.00 | 0.15 | 0.00 | 89 | 1019.5 |
| 20260502033306 | 17 | 335 | 4.8 | 9.7 | 0.00 | 0.15 | 0.00 | 89 | 1019.5 |
| 20260502033206 | 17 | 330 | 4.8 | 9.7 | 0.00 | 0.15 | 0.00 | 89 | 1019.6 |
| 20260502033106 | 17 | 312 | 4.8 | 9.7 | 0.00 | 0.15 | 0.00 | 89 | 1019.5 |
| 20260502033007 | 17 | 283 | 4.8 | 9.7 | 0.00 | 0.15 | 0.00 | 89 | 1019.5 |
| 20260502032906 | 17 | 227 | 4.8 | 9.7 | 0.00 | 0.15 | 0.00 | 89 | 1019.5 |
| 20260502032805 | 17 | 350 | 3.2 | 11.3 | 0.00 | 0.15 | 0.00 | 89 | 1019.6 |
| 20260502032705 | 17 | 317 | 3.2 | 8.0 | 0.00 | 0.15 | 0.00 | 89 | 1019.5 |
| 20260502032606 | 17 | 229 | 3.2 | 8.0 | 0.00 | 0.15 | 0.00 | 89 | 1019.5 |
| 20260502032506 | 17 | 289 | 3.2 | 8.0 | 0.00 | 0.15 | 0.00 | 89 | 1019.6 |
| 20260502032306 | 17 | 302 | 3.2 | 9.7 | 0.00 | 0.15 | 0.00 | 89 | 1019.5 |
| 20260502032207 | 17 | 221 | 3.2 | 9.7 | 0.00 | 0.15 | 0.00 | 89 | 1019.5 |
| 20260502032104 | 17 | 274 | 3.2 | 9.7 | 0.00 | 0.15 | 0.00 | 89 | 1019.4 |
| 20260502032008 | 17 | 247 | 3.2 | 9.7 | 0.00 | 0.15 | 0.00 | 89 | 1019.5 |
| 20260502031804 | 17 | 258 | 3.2 | 8.0 | 0.00 | 0.15 | 0.00 | 89 | 1019.5 |
| 20260502031704 | 17 | 262 | 3.2 | 8.0 | 0.00 | 0.15 | 0.00 | 88 | 1019.4 |
| 20260502031606 | 17 | 241 | 3.2 | 8.0 | 0.00 | 0.15 | 0.00 | 88 | 1019.5 |
| 20260502031506 | 17 | 241 | 3.2 | 8.0 | 0.00 | 0.15 | 0.00 | 88 | 1019.6 |
| 20260502031404 | 17 | 243 | 3.2 | 8.0 | 0.00 | 0.15 | 0.00 | 88 | 1019.6 |
| 20260502031105 | 17 | 272 | 1.6 | 8.0 | 0.00 | 0.15 | 0.00 | 88 | 1019.5 |
| 20260502030905 | 17 | 330 | 1.6 | 4.8 | 0.00 | 0.15 | 0.00 | 88 | 1019.5 |
| 20260502030806 | 17 | 330 | 1.6 | 4.8 | 0.00 | 0.15 | 0.00 | 88 | 1019.5 |
| 20260502030704 | 17 | 335 | 1.6 | 4.8 | 0.00 | 0.15 | 0.00 | 88 | 1019.5 |
| 20260502030605 | 17 | 239 | 1.6 | 4.8 | 0.00 | 0.15 | 0.00 | 88 | 1019.5 |
| 20260502030508 | 17 | 351 | 1.6 | 3.2 | 0.00 | 0.15 | 0.00 | 88 | 1019.5 |
| 20260502030406 | 17 | 351 | 1.6 | 3.2 | 0.00 | 0.15 | 0.00 | 88 | 1019.5 |
| 20260502030304 | 17 | 279 | 1.6 | 4.8 | 0.00 | 0.15 | 0.00 | 88 | 1019.5 |
| 20260502030204 | 17 | 279 | 1.6 | 4.8 | 0.00 | 0.15 | 0.00 | 88 | 1019.5 |
| 20260502030010 | 17 | 279 | 1.6 | 4.8 | 0.00 | 0.15 | 0.00 | 88 | 1019.4 |
| 20260502025805 | 17 | 222 | 1.6 | 4.8 | 0.00 | 0.15 | 0.00 | 88 | 1019.5 |
| 20260502025604 | 17 | 249 | 1.6 | 4.8 | 0.00 | 0.15 | 0.00 | 88 | 1019.5 |
| 20260502025506 | 17 | 249 | 1.6 | 4.8 | 0.00 | 0.15 | 0.00 | 88 | 1019.4 |
| 20260502025405 | 17 | 249 | 0.0 | 4.8 | 0.00 | 0.15 | 0.00 | 88 | 1019.5 |
| 20260502025306 | 17 | 313 | 0.0 | 4.8 | 0.00 | 0.15 | 0.00 | 88 | 1019.4 |
| 20260502025206 | 17 | 243 | 0.0 | 4.8 | 0.00 | 0.15 | 0.00 | 88 | 1019.4 |
| 20260502025105 | 17 | 243 | 0.0 | 3.2 | 0.00 | 0.15 | 0.00 | 88 | 1019.5 |
| 20260502025007 | 17 | 344 | 0.0 | 1.6 | 0.00 | 0.15 | 0.00 | 89 | 1019.4 |
| 20260502024805 | 17 | 344 | 0.0 | 0.0 | 0.00 | 0.15 | 0.00 | 89 | 1019.4 |
| 20260502024604 | 17 | 344 | 0.0 | 0.0 | 0.00 | 0.15 | 0.00 | 89 | 1019.4 |
| 20260502024507 | 17 | 344 | 0.0 | 0.0 | 0.00 | 0.15 | 0.00 | 89 | 1019.4 |
| 20260502024405 | 17 | 344 | 0.0 | 0.0 | 0.00 | 0.15 | 0.00 | 89 | 1019.3 |
| 20260502024307 | 17 | 344 | 0.0 | 0.0 | 0.00 | 0.15 | 0.00 | 89 | 1019.3 |
| 20260502024204 | 17 | 344 | 0.0 | 0.0 | 0.00 | 0.15 | 0.00 | 89 | 1019.4 |
| 20260502024104 | 17 | 344 | 0.0 | 0.0 | 0.00 | 0.15 | 0.00 | 89 | 1019.4 |
| 20260502024007 | 17 | 344 | 0.0 | 0.0 | 0.00 | 0.15 | 0.00 | 89 | 1019.4 |
| 20260502023905 | 17 | 344 | 0.0 | 0.0 | 0.00 | 0.15 | 0.00 | 89 | 1019.4 |
| 20260502023806 | 17 | 344 | 0.0 | 0.0 | 0.00 | 0.15 | 0.00 | 89 | 1019.4 |
| 20260502023705 | 17 | 291 | 0.0 | 0.0 | 0.00 | 0.15 | 0.00 | 89 | 1019.5 |
| 20260502023604 | 17 | 291 | 0.0 | 0.0 | 0.00 | 0.15 | 0.00 | 89 | 1019.5 |
| 20260502023506 | 17 | 291 | 0.0 | 0.0 | 0.00 | 0.15 | 0.00 | 89 | 1019.5 |
| 20260502023404 | 17 | 291 | 0.0 | 0.0 | 0.00 | 0.15 | 0.00 | 89 | 1019.5 |
| 20260502023304 | 17 | 291 | 0.0 | 0.0 | 0.00 | 0.15 | 0.00 | 89 | 1019.5 |
| 20260502023204 | 17 | 291 | 0.0 | 0.0 | 0.00 | 0.15 | 0.00 | 89 | 1019.5 |
| 20260502023105 | 17 | 291 | 0.0 | 0.0 | 0.00 | 0.15 | 0.00 | 89 | 1019.5 |
| 20260502023008 | 17 | 291 | 0.0 | 0.0 | 0.00 | 0.15 | 0.00 | 89 | 1019.5 |
| 20260502022805 | 17 | 291 | 0.0 | 0.0 | 0.00 | 0.15 | 0.00 | 89 | 1019.5 |
| 20260502022705 | 17 | 291 | 0.0 | 0.0 | 0.00 | 0.15 | 0.00 | 89 | 1019.5 |
| 20260502022606 | 17 | 291 | 0.0 | 0.0 | 0.00 | 0.15 | 0.00 | 89 | 1019.4 |
| 20260502022406 | 17 | 291 | 0.0 | 0.0 | 0.00 | 0.15 | 0.00 | 89 | 1019.5 |
| 20260502022306 | 17 | 291 | 0.0 | 0.0 | 0.00 | 0.15 | 0.00 | 89 | 1019.6 |
| 20260502022105 | 17 | 291 | 0.0 | 1.6 | 0.00 | 0.15 | 0.00 | 89 | 1019.5 |
| 20260502022010 | 17 | 291 | 0.0 | 1.6 | 0.00 | 0.15 | 0.00 | 89 | 1019.5 |
| 20260502021906 | 17 | 291 | 0.0 | 1.6 | 0.00 | 0.15 | 0.00 | 89 | 1019.5 |
| 20260502021805 | 17 | 291 | 0.0 | 1.6 | 0.00 | 0.15 | 0.00 | 89 | 1019.6 |
| 20260502021706 | 17 | 291 | 0.0 | 1.6 | 0.00 | 0.15 | 0.00 | 89 | 1019.6 |
| 20260502021604 | 17 | 291 | 0.0 | 1.6 | 0.00 | 0.15 | 0.00 | 89 | 1019.6 |
| 20260502021508 | 17 | 291 | 0.0 | 1.6 | 0.00 | 0.15 | 0.00 | 89 | 1019.6 |
| 20260502021405 | 17 | 291 | 1.6 | 3.2 | 0.00 | 0.15 | 0.00 | 89 | 1019.6 |
| 20260502021205 | 17 | 291 | 1.6 | 8.0 | 0.00 | 0.15 | 0.00 | 89 | 1019.6 |
| 20260502021105 | 17 | 291 | 1.6 | 8.0 | 0.00 | 0.15 | 0.00 | 89 | 1019.6 |
| 20260502021008 | 17 | 291 | 3.2 | 8.0 | 0.00 | 0.15 | 0.00 | 89 | 1019.7 |
| 20260502020804 | 17 | 291 | 3.2 | 8.0 | 0.00 | 0.15 | 0.00 | 89 | 1019.7 |
| 20260502020705 | 17 | 291 | 3.2 | 8.0 | 0.00 | 0.15 | 0.00 | 89 | 1019.7 |
| 20260502020604 | 17 | 291 | 3.2 | 8.0 | 0.00 | 0.15 | 0.00 | 89 | 1019.7 |
| 20260502020507 | 17 | 279 | 3.2 | 8.0 | 0.00 | 0.15 | 0.00 | 89 | 1019.7 |
| 20260502020305 | 17 | 319 | 3.2 | 8.0 | 0.00 | 0.15 | 0.00 | 89 | 1019.7 |
| 20260502020105 | 17 | 357 | 3.2 | 6.4 | 0.00 | 0.15 | 0.00 | 89 | 1019.8 |
| 20260502015805 | 17 | 291 | 1.6 | 6.4 | 0.00 | 0.15 | 0.00 | 89 | 1019.7 |
| 20260502015704 | 17 | 287 | 1.6 | 6.4 | 0.00 | 0.15 | 0.00 | 89 | 1019.6 |
| 20260502015604 | 17 | 335 | 1.6 | 6.4 | 0.00 | 0.15 | 0.00 | 89 | 1019.7 |
| 20260502015506 | 17 | 320 | 1.6 | 6.4 | 0.00 | 0.15 | 0.00 | 89 | 1019.6 |
| 20260502015405 | 17 | 345 | 1.6 | 6.4 | 0.00 | 0.15 | 0.00 | 89 | 1019.6 |
| 20260502015305 | 17 | 316 | 1.6 | 6.4 | 0.00 | 0.15 | 0.00 | 89 | 1019.6 |
| 20260502015206 | 17 | 347 | 1.6 | 6.4 | 0.00 | 0.15 | 0.00 | 89 | 1019.6 |
| 20260502015105 | 17 | 325 | 1.6 | 6.4 | 0.00 | 0.15 | 0.00 | 89 | 1019.7 |
| 20260502015008 | 17 | 257 | 1.6 | 4.8 | 0.00 | 0.15 | 0.00 | 89 | 1019.6 |
| 20260502014706 | 17 | 335 | 1.6 | 4.8 | 0.00 | 0.15 | 0.00 | 89 | 1019.6 |
| 20260502014605 | 17 | 335 | 1.6 | 4.8 | 0.00 | 0.15 | 0.00 | 89 | 1019.7 |
| 20260502014507 | 17 | 335 | 3.2 | 4.8 | 0.00 | 0.15 | 0.00 | 89 | 1019.7 |
| 20260502014404 | 17 | 335 | 3.2 | 4.8 | 0.00 | 0.15 | 0.00 | 89 | 1019.7 |
| 20260502014304 | 17 | 335 | 1.6 | 4.8 | 0.00 | 0.15 | 0.00 | 89 | 1019.7 |
| 20260502014206 | 17 | 9 | 1.6 | 4.8 | 0.00 | 0.15 | 0.00 | 89 | 1019.7 |
| 20260502014105 | 17 | 9 | 1.6 | 4.8 | 0.00 | 0.15 | 0.00 | 89 | 1019.7 |
| 20260502014008 | 17 | 293 | 1.6 | 4.8 | 0.00 | 0.15 | 0.00 | 89 | 1019.7 |
| 20260502013905 | 17 | 293 | 1.6 | 4.8 | 0.00 | 0.15 | 0.00 | 89 | 1019.7 |
| 20260502013806 | 17 | 271 | 1.6 | 6.4 | 0.00 | 0.15 | 0.00 | 89 | 1019.7 |
| 20260502013705 | 17 | 345 | 1.6 | 6.4 | 0.00 | 0.15 | 0.00 | 89 | 1019.7 |
| 20260502013605 | 17 | 264 | 1.6 | 8.0 | 0.00 | 0.15 | 0.00 | 89 | 1019.7 |
| 20260502013506 | 17 | 264 | 3.2 | 8.0 | 0.00 | 0.15 | 0.00 | 89 | 1019.7 |
| 20260502013404 | 17 | 227 | 3.2 | 8.0 | 0.00 | 0.15 | 0.00 | 89 | 1019.7 |
| 20260502013306 | 17 | 227 | 3.2 | 8.0 | 0.00 | 0.15 | 0.00 | 89 | 1019.7 |
| 20260502013107 | 17 | 227 | 3.2 | 8.0 | 0.00 | 0.15 | 0.00 | 89 | 1019.8 |
| 20260502013006 | 17 | 312 | 3.2 | 8.0 | 0.00 | 0.15 | 0.00 | 89 | 1019.8 |
| 20260502012905 | 17 | 282 | 3.2 | 8.0 | 0.00 | 0.15 | 0.00 | 89 | 1019.8 |
| 20260502012706 | 17 | 293 | 3.2 | 8.0 | 0.00 | 0.15 | 0.00 | 89 | 1019.7 |
| 20260502012605 | 17 | 2 | 3.2 | 6.4 | 0.00 | 0.15 | 0.00 | 89 | 1019.8 |
| 20260502012405 | 17 | 269 | 3.2 | 6.4 | 0.00 | 0.15 | 0.00 | 89 | 1019.8 |
| 20260502012306 | 17 | 270 | 3.2 | 6.4 | 0.00 | 0.15 | 0.00 | 89 | 1019.8 |
| 20260502012106 | 17 | 345 | 3.2 | 6.4 | 0.00 | 0.15 | 0.00 | 89 | 1019.8 |
| 20260502012009 | 17 | 352 | 3.2 | 6.4 | 0.00 | 0.15 | 0.00 | 89 | 1019.8 |
| 20260502011805 | 17 | 264 | 3.2 | 9.7 | 0.00 | 0.15 | 0.00 | 88 | 1019.8 |
| 20260502011705 | 17 | 289 | 3.2 | 9.7 | 0.00 | 0.15 | 0.00 | 88 | 1019.8 |
| 20260502011605 | 17 | 251 | 3.2 | 9.7 | 0.00 | 0.15 | 0.00 | 88 | 1020.0 |
| 20260502011506 | 17 | 268 | 3.2 | 9.7 | 0.00 | 0.15 | 0.00 | 88 | 1019.9 |
| 20260502011405 | 17 | 225 | 3.2 | 9.7 | 0.00 | 0.15 | 0.00 | 88 | 1019.9 |
| 20260502011305 | 17 | 279 | 3.2 | 9.7 | 0.00 | 0.15 | 0.00 | 88 | 1020.0 |
| 20260502011205 | 17 | 243 | 3.2 | 9.7 | 0.00 | 0.15 | 0.00 | 88 | 1019.9 |
| 20260502011106 | 17 | 275 | 3.2 | 9.7 | 0.00 | 0.15 | 0.00 | 88 | 1020.0 |
| 20260502011006 | 17 | 265 | 3.2 | 9.7 | 0.00 | 0.15 | 0.00 | 88 | 1020.0 |
| 20260502010804 | 17 | 245 | 1.6 | 6.4 | 0.00 | 0.15 | 0.00 | 88 | 1020.0 |
| 20260502010704 | 17 | 245 | 1.6 | 6.4 | 0.00 | 0.15 | 0.00 | 88 | 1020.0 |
| 20260502010605 | 17 | 246 | 1.6 | 4.8 | 0.00 | 0.15 | 0.00 | 88 | 1020.0 |
| 20260502010507 | 17 | 256 | 1.6 | 4.8 | 0.00 | 0.15 | 0.00 | 88 | 1020.0 |
| 20260502010406 | 17 | 256 | 1.6 | 4.8 | 0.00 | 0.15 | 0.00 | 88 | 1019.9 |
| 20260502010108 | 17 | 256 | 1.6 | 4.8 | 0.00 | 0.15 | 0.00 | 88 | 1020.0 |
| 20260502010011 | 17 | 256 | 1.6 | 4.8 | 0.00 | 0.15 | 0.00 | 88 | 1020.0 |
| 20260502005605 | 17 | 343 | 1.6 | 4.8 | 0.00 | 0.15 | 0.00 | 88 | 1020.1 |
| 20260502005507 | 17 | 343 | 1.6 | 4.8 | 0.00 | 0.15 | 0.00 | 88 | 1020.2 |
| 20260502005407 | 17 | 343 | 1.6 | 4.8 | 0.00 | 0.15 | 0.00 | 88 | 1020.1 |
| 20260502005306 | 17 | 343 | 1.6 | 4.8 | 0.00 | 0.15 | 0.00 | 88 | 1020.1 |
| 20260502005205 | 17 | 343 | 1.6 | 4.8 | 0.00 | 0.15 | 0.00 | 88 | 1020.2 |
| 20260502005105 | 17 | 343 | 1.6 | 4.8 | 0.00 | 0.15 | 0.00 | 88 | 1020.1 |
| 20260502005006 | 17 | 343 | 1.6 | 4.8 | 0.00 | 0.15 | 0.00 | 88 | 1020.1 |
| 20260502004905 | 17 | 343 | 1.6 | 4.8 | 0.00 | 0.15 | 0.00 | 88 | 1020.1 |
| 20260502004806 | 17 | 343 | 1.6 | 4.8 | 0.00 | 0.15 | 0.00 | 88 | 1020.1 |
| 20260502004705 | 17 | 343 | 1.6 | 4.8 | 0.00 | 0.15 | 0.00 | 88 | 1020.1 |
| 20260502004604 | 17 | 343 | 1.6 | 4.8 | 0.00 | 0.15 | 0.00 | 88 | 1020.1 |
| 20260502004507 | 17 | 343 | 1.6 | 4.8 | 0.00 | 0.15 | 0.00 | 88 | 1020.1 |
| 20260502004405 | 17 | 343 | 1.6 | 3.2 | 0.00 | 0.15 | 0.00 | 88 | 1020.0 |
| 20260502004304 | 17 | 343 | 1.6 | 3.2 | 0.00 | 0.15 | 0.00 | 88 | 1020.1 |
| 20260502004205 | 17 | 358 | 1.6 | 3.2 | 0.00 | 0.15 | 0.00 | 88 | 1020.0 |
| 20260502004105 | 17 | 358 | 1.6 | 3.2 | 0.00 | 0.15 | 0.00 | 88 | 1020.2 |
| 20260502003905 | 17 | 358 | 1.6 | 4.8 | 0.00 | 0.15 | 0.00 | 88 | 1020.0 |
| 20260502003806 | 17 | 358 | 1.6 | 4.8 | 0.00 | 0.15 | 0.00 | 88 | 1020.0 |
| 20260502003705 | 17 | 265 | 1.6 | 4.8 | 0.00 | 0.15 | 0.00 | 88 | 1020.1 |
| 20260502003606 | 17 | 265 | 1.6 | 4.8 | 0.00 | 0.15 | 0.00 | 88 | 1020.1 |
| 20260502003507 | 17 | 265 | 1.6 | 4.8 | 0.00 | 0.15 | 0.00 | 88 | 1020.1 |
| 20260502003406 | 17 | 265 | 1.6 | 4.8 | 0.00 | 0.15 | 0.00 | 88 | 1020.1 |
| 20260502003306 | 17 | 265 | 1.6 | 4.8 | 0.00 | 0.15 | 0.00 | 88 | 1020.0 |
| 20260502003205 | 17 | 265 | 1.6 | 4.8 | 0.00 | 0.15 | 0.00 | 88 | 1020.1 |
| 20260502003104 | 17 | 265 | 1.6 | 4.8 | 0.00 | 0.15 | 0.00 | 88 | 1020.2 |
| 20260502003008 | 17 | 265 | 1.6 | 4.8 | 0.00 | 0.15 | 0.00 | 88 | 1020.2 |
| 20260502002907 | 17 | 265 | 1.6 | 4.8 | 0.00 | 0.15 | 0.00 | 88 | 1020.2 |
| 20260502002805 | 17 | 265 | 1.6 | 3.2 | 0.00 | 0.15 | 0.00 | 88 | 1020.2 |
| 20260502002705 | 17 | 291 | 1.6 | 3.2 | 0.00 | 0.15 | 0.00 | 88 | 1020.2 |
| 20260502002604 | 17 | 314 | 1.6 | 3.2 | 0.00 | 0.15 | 0.00 | 88 | 1020.2 |
| 20260502002507 | 17 | 256 | 1.6 | 3.2 | 0.00 | 0.15 | 0.00 | 88 | 1020.2 |
| 20260502002405 | 17 | 256 | 1.6 | 3.2 | 0.00 | 0.15 | 0.00 | 88 | 1020.2 |
| 20260502002306 | 17 | 315 | 1.6 | 4.8 | 0.00 | 0.15 | 0.00 | 88 | 1020.2 |
| 20260502002107 | 17 | 238 | 1.6 | 4.8 | 0.00 | 0.15 | 0.00 | 88 | 1020.2 |
| 20260502002008 | 17 | 238 | 1.6 | 4.8 | 0.00 | 0.15 | 0.00 | 88 | 1020.3 |
| 20260502001904 | 17 | 237 | 1.6 | 4.8 | 0.00 | 0.15 | 0.00 | 88 | 1020.3 |
| 20260502001805 | 17 | 237 | 1.6 | 6.4 | 0.00 | 0.15 | 0.00 | 88 | 1020.2 |
| 20260502001706 | 17 | 335 | 1.6 | 6.4 | 0.00 | 0.15 | 0.00 | 88 | 1020.3 |
| 20260502001507 | 17 | 330 | 1.6 | 6.4 | 0.00 | 0.15 | 0.00 | 88 | 1020.4 |
| 20260502001404 | 17 | 335 | 1.6 | 6.4 | 0.00 | 0.15 | 0.00 | 88 | 1020.4 |
| 20260502001305 | 17 | 260 | 1.6 | 6.4 | 0.00 | 0.15 | 0.00 | 88 | 1020.5 |
| 20260502001106 | 17 | 235 | 1.6 | 6.4 | 0.00 | 0.15 | 0.00 | 88 | 1020.5 |
| 20260502001007 | 17 | 235 | 1.6 | 6.4 | 0.00 | 0.15 | 0.00 | 88 | 1020.5 |
| 20260502000904 | 17 | 356 | 1.6 | 4.8 | 0.00 | 0.15 | 0.00 | 88 | 1020.5 |
| 20260502000805 | 17 | 310 | 1.6 | 4.8 | 0.00 | 0.15 | 0.00 | 88 | 1020.5 |
| 20260502000508 | 17 | 307 | 1.6 | 4.8 | 0.00 | 0.15 | 0.00 | 88 | 1020.5 |
| 20260502000406 | 17 | 330 | 1.6 | 4.8 | 0.00 | 0.15 | 0.00 | 88 | 1020.6 |
| 20260502000304 | 17 | 251 | 1.6 | 4.8 | 0.00 | 0.15 | 0.00 | 88 | 1020.5 |
| 20260502000206 | 17 | 251 | 1.6 | 4.8 | 0.00 | 0.15 | 0.00 | 88 | 1020.6 |
| 20260502000105 | 17 | 251 | 1.6 | 4.8 | 0.00 | 0.15 | 0.00 | 88 | 1020.6 |
| 20260502000010 | 17 | 263 | 1.6 | 4.8 | 0.00 | 0.15 | 0.00 | 88 | 1020.6 |
| 20260501235905 | 17 | 241 | 1.6 | 4.8 | 0.00 | 0.15 | 0.00 | 88 | 1020.6 |
| 20260501235805 | 17 | 257 | 1.6 | 3.2 | 0.00 | 0.15 | 0.00 | 88 | 1020.6 |
| 20260501235604 | 17 | 279 | 1.6 | 3.2 | 0.00 | 0.15 | 0.00 | 88 | 1020.6 |
| 20260501235505 | 17 | 279 | 1.6 | 3.2 | 0.00 | 0.15 | 0.00 | 88 | 1020.6 |
| 20260501235404 | 17 | 279 | 1.6 | 3.2 | 0.00 | 0.15 | 0.00 | 88 | 1020.6 |
| 20260501235305 | 17 | 279 | 1.6 | 3.2 | 0.00 | 0.15 | 0.00 | 88 | 1020.7 |
| 20260501235204 | 17 | 279 | 1.6 | 3.2 | 0.00 | 0.15 | 0.00 | 88 | 1020.6 |
| 20260501235104 | 17 | 279 | 0.0 | 3.2 | 0.00 | 0.15 | 0.00 | 88 | 1020.7 |
| 20260501235007 | 17 | 330 | 0.0 | 3.2 | 0.00 | 0.15 | 0.00 | 88 | 1020.7 |
| 20260501234904 | 17 | 330 | 1.6 | 3.2 | 0.00 | 0.15 | 0.00 | 88 | 1020.7 |
| 20260501234803 | 17 | 330 | 1.6 | 3.2 | 0.00 | 0.15 | 0.00 | 88 | 1020.6 |
| 20260501234605 | 17 | 330 | 1.6 | 3.2 | 0.00 | 0.15 | 0.00 | 88 | 1020.7 |
| 20260501234507 | 17 | 330 | 1.6 | 4.8 | 0.00 | 0.15 | 0.00 | 88 | 1020.6 |
| 20260501234403 | 17 | 330 | 1.6 | 4.8 | 0.00 | 0.15 | 0.00 | 88 | 1020.7 |
| 20260501234306 | 17 | 330 | 1.6 | 4.8 | 0.00 | 0.15 | 0.00 | 88 | 1020.6 |
| 20260501234105 | 17 | 330 | 3.2 | 4.8 | 0.00 | 0.15 | 0.00 | 88 | 1020.7 |
| 20260501234007 | 17 | 330 | 3.2 | 6.4 | 0.00 | 0.15 | 0.00 | 88 | 1020.7 |
| 20260501233759 | 17 | 303 | 3.2 | 6.4 | 0.00 | 0.15 | 0.00 | 88 | 1020.8 |
| 20260501233659 | 17 | 210 | 1.6 | 6.4 | 0.00 | 0.15 | 0.00 | 88 | 1020.8 |
| 20260501233558 | 17 | 299 | 1.6 | 6.4 | 0.00 | 0.15 | 0.00 | 88 | 1020.8 |
| 20260501233502 | 17 | 299 | 1.6 | 6.4 | 0.00 | 0.15 | 0.00 | 88 | 1020.8 |
| 20260501233400 | 17 | 320 | 3.2 | 6.4 | 0.00 | 0.15 | 0.00 | 88 | 1020.9 |
| 20260501233259 | 17 | 344 | 3.2 | 6.4 | 0.00 | 0.15 | 0.00 | 88 | 1020.9 |
| 20260501233159 | 17 | 242 | 3.2 | 6.4 | 0.00 | 0.15 | 0.00 | 88 | 1020.8 |
| 20260501233059 | 17 | 279 | 3.2 | 6.4 | 0.00 | 0.15 | 0.00 | 88 | 1020.9 |
| 20260501233006 | 17 | 239 | 3.2 | 6.4 | 0.00 | 0.15 | 0.00 | 88 | 1020.8 |
| 20260501232907 | 17 | 349 | 3.2 | 6.4 | 0.00 | 0.15 | 0.00 | 88 | 1020.8 |
| 20260501232803 | 17 | 254 | 3.2 | 6.4 | 0.00 | 0.15 | 0.00 | 88 | 1020.8 |
| 20260501232704 | 17 | 277 | 3.2 | 6.4 | 0.00 | 0.15 | 0.00 | 88 | 1020.8 |
| 20260501232507 | 17 | 325 | 3.2 | 9.7 | 0.00 | 0.15 | 0.00 | 88 | 1020.9 |
| 20260501232404 | 17 | 357 | 3.2 | 9.7 | 0.00 | 0.15 | 0.00 | 88 | 1020.9 |
| 20260501232306 | 17 | 358 | 3.2 | 9.7 | 0.00 | 0.15 | 0.00 | 88 | 1020.9 |
| 20260501232103 | 17 | 299 | 3.2 | 9.7 | 0.00 | 0.15 | 0.00 | 88 | 1020.9 |
| 20260501232006 | 17 | 285 | 3.2 | 9.7 | 0.00 | 0.15 | 0.00 | 88 | 1020.8 |
| 20260501231904 | 17 | 245 | 3.2 | 9.7 | 0.00 | 0.15 | 0.00 | 88 | 1020.9 |
| 20260501231704 | 17 | 247 | 1.6 | 4.8 | 0.00 | 0.15 | 0.00 | 88 | 1020.9 |
| 20260501231403 | 17 | 277 | 1.6 | 4.8 | 0.00 | 0.15 | 0.00 | 88 | 1020.9 |
| 20260501231304 | 17 | 288 | 1.6 | 4.8 | 0.00 | 0.15 | 0.00 | 88 | 1020.9 |
| 20260501231203 | 17 | 288 | 1.6 | 4.8 | 0.00 | 0.15 | 0.00 | 88 | 1020.8 |
| 20260501231105 | 17 | 288 | 1.6 | 4.8 | 0.00 | 0.15 | 0.00 | 88 | 1020.9 |
| 20260501230903 | 17 | 304 | 1.6 | 4.8 | 0.00 | 0.15 | 0.00 | 88 | 1020.8 |
| 20260501230805 | 17 | 304 | 1.6 | 4.8 | 0.00 | 0.15 | 0.00 | 88 | 1020.8 |
| 20260501230604 | 17 | 304 | 1.6 | 4.8 | 0.00 | 0.15 | 0.00 | 87 | 1020.8 |
| 20260501230505 | 17 | 304 | 1.6 | 4.8 | 0.00 | 0.15 | 0.00 | 87 | 1020.7 |
| 20260501230403 | 17 | 304 | 1.6 | 4.8 | 0.00 | 0.15 | 0.00 | 87 | 1020.8 |
| 20260501230305 | 17 | 304 | 1.6 | 4.8 | 0.00 | 0.15 | 0.00 | 87 | 1020.8 |
| 20260501230204 | 17 | 304 | 1.6 | 4.8 | 0.00 | 0.15 | 0.00 | 87 | 1020.8 |
| 20260501230107 | 17 | 304 | 1.6 | 4.8 | 0.00 | 0.15 | 0.00 | 87 | 1020.7 |
| 20260501230008 | 17 | 304 | 1.6 | 4.8 | 0.00 | 0.15 | 0.00 | 87 | 1020.7 |
| 20260501225803 | 17 | 304 | 1.6 | 4.8 | 0.00 | 0.15 | 0.00 | 87 | 1020.8 |
| 20260501225703 | 17 | 304 | 1.6 | 6.4 | 0.00 | 0.15 | 0.00 | 87 | 1020.9 |
| 20260501225505 | 17 | 304 | 1.6 | 6.4 | 0.00 | 0.15 | 0.00 | 87 | 1020.8 |
| 20260501225403 | 17 | 304 | 1.6 | 6.4 | 0.00 | 0.15 | 0.00 | 87 | 1020.8 |
| 20260501225306 | 17 | 304 | 1.6 | 6.4 | 0.00 | 0.15 | 0.00 | 87 | 1020.8 |
| 20260501225103 | 17 | 304 | 1.6 | 6.4 | 0.00 | 0.15 | 0.00 | 87 | 1020.7 |
| 20260501225007 | 17 | 316 | 1.6 | 6.4 | 0.00 | 0.15 | 0.00 | 87 | 1020.8 |
| 20260501224805 | 17 | 303 | 1.6 | 6.4 | 0.00 | 0.15 | 0.00 | 87 | 1020.7 |
| 20260501224704 | 17 | 358 | 1.6 | 4.8 | 0.00 | 0.15 | 0.00 | 87 | 1020.7 |
| 20260501224605 | 17 | 358 | 1.6 | 4.8 | 0.00 | 0.15 | 0.00 | 87 | 1020.7 |
| 20260501224506 | 17 | 358 | 0.0 | 4.8 | 0.00 | 0.15 | 0.00 | 87 | 1020.8 |
| 20260501224404 | 17 | 358 | 0.0 | 4.8 | 0.00 | 0.15 | 0.00 | 87 | 1020.7 |
| 20260501224303 | 17 | 358 | 0.0 | 4.8 | 0.00 | 0.15 | 0.00 | 87 | 1020.8 |
| 20260501224205 | 17 | 309 | 1.6 | 3.2 | 0.00 | 0.15 | 0.00 | 87 | 1020.8 |
| 20260501224105 | 17 | 309 | 1.6 | 3.2 | 0.00 | 0.15 | 0.00 | 87 | 1020.8 |
| 20260501224007 | 17 | 309 | 1.6 | 3.2 | 0.00 | 0.15 | 0.00 | 86 | 1020.8 |
| 20260501223905 | 17 | 309 | 1.6 | 3.2 | 0.00 | 0.15 | 0.00 | 86 | 1020.8 |
| 20260501223705 | 18 | 309 | 1.6 | 3.2 | 0.00 | 0.15 | 0.00 | 86 | 1020.8 |
| 20260501223603 | 18 | 309 | 1.6 | 3.2 | 0.00 | 0.15 | 0.00 | 86 | 1020.8 |
| 20260501223506 | 18 | 309 | 1.6 | 3.2 | 0.00 | 0.15 | 0.00 | 86 | 1020.8 |
| 20260501223303 | 18 | 309 | 1.6 | 3.2 | 0.00 | 0.15 | 0.00 | 86 | 1020.7 |
| 20260501223205 | 18 | 309 | 1.6 | 3.2 | 0.00 | 0.15 | 0.00 | 86 | 1020.7 |
| 20260501223104 | 18 | 309 | 1.6 | 3.2 | 0.00 | 0.15 | 0.00 | 86 | 1020.8 |
| 20260501223006 | 18 | 309 | 1.6 | 4.8 | 0.00 | 0.15 | 0.00 | 87 | 1020.8 |
| 20260501222903 | 18 | 309 | 1.6 | 4.8 | 0.00 | 0.15 | 0.00 | 86 | 1020.7 |
| 20260501222804 | 18 | 309 | 1.6 | 4.8 | 0.00 | 0.15 | 0.00 | 86 | 1020.7 |
| 20260501222706 | 18 | 309 | 1.6 | 4.8 | 0.00 | 0.15 | 0.00 | 86 | 1020.7 |
| 20260501222603 | 18 | 309 | 1.6 | 4.8 | 0.00 | 0.15 | 0.00 | 86 | 1020.8 |
| 20260501222506 | 18 | 309 | 1.6 | 4.8 | 0.00 | 0.15 | 0.00 | 86 | 1020.8 |
| 20260501222103 | 18 | 321 | 1.6 | 4.8 | 0.00 | 0.15 | 0.00 | 86 | 1020.8 |
| 20260501222007 | 18 | 275 | 1.6 | 4.8 | 0.00 | 0.15 | 0.00 | 86 | 1020.8 |
| 20260501221903 | 18 | 346 | 1.6 | 4.8 | 0.00 | 0.15 | 0.00 | 86 | 1020.8 |
| 20260501221804 | 18 | 346 | 1.6 | 4.8 | 0.00 | 0.15 | 0.00 | 86 | 1020.8 |
| 20260501221704 | 18 | 346 | 1.6 | 4.8 | 0.00 | 0.15 | 0.00 | 86 | 1020.9 |
| 20260501221605 | 18 | 298 | 1.6 | 4.8 | 0.00 | 0.15 | 0.00 | 86 | 1020.9 |
| 20260501221509 | 18 | 298 | 1.6 | 4.8 | 0.00 | 0.15 | 0.00 | 86 | 1020.8 |
| 20260501221303 | 18 | 298 | 1.6 | 4.8 | 0.00 | 0.15 | 0.00 | 86 | 1020.9 |
| 20260501221205 | 18 | 298 | 3.2 | 4.8 | 0.00 | 0.15 | 0.00 | 86 | 1020.9 |
| 20260501221104 | 18 | 298 | 3.2 | 4.8 | 0.00 | 0.15 | 0.00 | 86 | 1021.0 |
| 20260501221007 | 18 | 325 | 3.2 | 4.8 | 0.00 | 0.15 | 0.00 | 86 | 1020.9 |
| 20260501220904 | 18 | 325 | 3.2 | 4.8 | 0.00 | 0.15 | 0.00 | 86 | 1021.0 |
| 20260501220705 | 18 | 325 | 1.6 | 4.8 | 0.00 | 0.15 | 0.00 | 87 | 1021.0 |
| 20260501220604 | 18 | 285 | 1.6 | 4.8 | 0.00 | 0.15 | 0.00 | 87 | 1020.9 |
| 20260501220405 | 18 | 320 | 1.6 | 4.8 | 0.00 | 0.15 | 0.00 | 87 | 1021.0 |
| 20260501220307 | 18 | 320 | 1.6 | 4.8 | 0.00 | 0.15 | 0.00 | 87 | 1020.9 |
| 20260501220206 | 18 | 320 | 1.6 | 4.8 | 0.00 | 0.15 | 0.00 | 87 | 1020.9 |
| 20260501220009 | 18 | 320 | 0.0 | 3.2 | 0.00 | 0.15 | 0.15 | 87 | 1020.9 |
| 20260501215706 | 18 | 320 | 0.0 | 3.2 | 0.00 | 0.15 | 0.15 | 87 | 1020.9 |
| 20260501215605 | 18 | 320 | 0.0 | 3.2 | 0.00 | 0.15 | 0.15 | 87 | 1021.0 |
| 20260501215405 | 18 | 320 | 0.0 | 3.2 | 0.00 | 0.15 | 0.15 | 87 | 1021.0 |
| 20260501215108 | 18 | 320 | 0.0 | 0.0 | 0.00 | 0.15 | 0.15 | 87 | 1021.1 |
| 20260501215008 | 18 | 320 | 0.0 | 0.0 | 0.00 | 0.15 | 0.15 | 87 | 1021.1 |
| 20260501214907 | 18 | 320 | 0.0 | 0.0 | 0.00 | 0.15 | 0.15 | 87 | 1021.0 |
| 20260501214806 | 18 | 320 | 0.0 | 0.0 | 0.00 | 0.15 | 0.15 | 87 | 1021.0 |
| 20260501214706 | 18 | 320 | 0.0 | 0.0 | 0.00 | 0.15 | 0.15 | 87 | 1021.0 |
| 20260501214607 | 18 | 320 | 0.0 | 0.0 | 0.00 | 0.15 | 0.15 | 87 | 1021.0 |
| 20260501214508 | 18 | 320 | 0.0 | 0.0 | 0.00 | 0.15 | 0.15 | 87 | 1021.1 |
| 20260501214407 | 18 | 320 | 0.0 | 0.0 | 0.00 | 0.15 | 0.15 | 87 | 1021.1 |
| 20260501214305 | 18 | 320 | 0.0 | 0.0 | 0.00 | 0.15 | 0.15 | 87 | 1021.1 |
| 20260501214206 | 18 | 320 | 0.0 | 0.0 | 0.00 | 0.15 | 0.15 | 87 | 1021.0 |
| 20260501214106 | 18 | 320 | 0.0 | 0.0 | 0.00 | 0.15 | 0.15 | 87 | 1021.1 |
| 20260501214009 | 18 | 320 | 0.0 | 0.0 | 0.00 | 0.15 | 0.15 | 87 | 1021.0 |
| 20260501213906 | 17 | 320 | 0.0 | 0.0 | 0.00 | 0.15 | 0.15 | 87 | 1021.2 |
| 20260501213806 | 17 | 320 | 0.0 | 0.0 | 0.00 | 0.15 | 0.15 | 87 | 1021.1 |
| 20260501213706 | 18 | 320 | 0.0 | 0.0 | 0.00 | 0.15 | 0.15 | 87 | 1021.1 |
| 20260501213507 | 17 | 320 | 0.0 | 0.0 | 0.00 | 0.15 | 0.15 | 87 | 1021.1 |
| 20260501213405 | 18 | 320 | 0.0 | 0.0 | 0.00 | 0.15 | 0.15 | 87 | 1021.0 |
| 20260501213305 | 17 | 320 | 0.0 | 0.0 | 0.00 | 0.15 | 0.15 | 87 | 1021.1 |
| 20260501213205 | 17 | 320 | 0.0 | 0.0 | 0.00 | 0.15 | 0.15 | 87 | 1021.0 |
| 20260501213106 | 17 | 320 | 0.0 | 0.0 | 0.00 | 0.15 | 0.15 | 87 | 1021.1 |
| 20260501213008 | 17 | 320 | 0.0 | 0.0 | 0.00 | 0.15 | 0.15 | 87 | 1021.1 |
| 20260501212807 | 17 | 320 | 0.0 | 0.0 | 0.00 | 0.15 | 0.15 | 87 | 1021.1 |
| 20260501212705 | 17 | 320 | 0.0 | 0.0 | 0.00 | 0.15 | 0.15 | 87 | 1021.1 |
| 20260501212508 | 17 | 320 | 0.0 | 0.0 | 0.00 | 0.15 | 0.15 | 87 | 1021.2 |
| 20260501212206 | 17 | 320 | 0.0 | 0.0 | 0.00 | 0.15 | 0.15 | 87 | 1021.1 |
| 20260501212008 | 17 | 320 | 0.0 | 0.0 | 0.00 | 0.15 | 0.15 | 87 | 1021.1 |
| 20260501211907 | 18 | 320 | 0.0 | 0.0 | 0.00 | 0.15 | 0.15 | 87 | 1021.1 |
| 20260501211806 | 18 | 320 | 0.0 | 0.0 | 0.00 | 0.15 | 0.15 | 87 | 1021.1 |
| 20260501211705 | 18 | 320 | 0.0 | 0.0 | 0.00 | 0.15 | 0.15 | 87 | 1021.2 |
| 20260501211507 | 17 | 320 | 0.0 | 0.0 | 0.00 | 0.15 | 0.15 | 87 | 1021.1 |
| 20260501211407 | 17 | 320 | 0.0 | 0.0 | 0.00 | 0.15 | 0.15 | 87 | 1021.2 |
| 20260501211306 | 17 | 320 | 0.0 | 0.0 | 0.00 | 0.15 | 0.15 | 87 | 1021.1 |
| 20260501211205 | 17 | 320 | 0.0 | 0.0 | 0.00 | 0.15 | 0.15 | 87 | 1021.2 |
| 20260501211106 | 17 | 320 | 0.0 | 0.0 | 0.00 | 0.15 | 0.15 | 87 | 1021.2 |
| 20260501210906 | 18 | 320 | 0.0 | 0.0 | 0.00 | 0.15 | 0.15 | 86 | 1021.3 |
| 20260501210806 | 18 | 320 | 0.0 | 0.0 | 0.00 | 0.15 | 0.15 | 86 | 1021.4 |
| 20260501210607 | 18 | 320 | 0.0 | 0.0 | 0.00 | 0.15 | 0.15 | 86 | 1021.3 |
| 20260501210510 | 18 | 320 | 0.0 | 0.0 | 0.00 | 0.15 | 0.15 | 86 | 1021.4 |
| 20260501210406 | 18 | 320 | 0.0 | 1.6 | 0.00 | 0.15 | 0.15 | 86 | 1021.3 |
| 20260501210307 | 18 | 320 | 0.0 | 1.6 | 0.00 | 0.15 | 0.15 | 86 | 1021.3 |
| 20260501210207 | 18 | 320 | 0.0 | 1.6 | 0.00 | 0.15 | 0.15 | 86 | 1021.3 |
| 20260501210106 | 18 | 320 | 0.0 | 1.6 | 0.00 | 0.15 | 0.15 | 86 | 1021.3 |
| 20260501210007 | 18 | 320 | 0.0 | 3.2 | 0.00 | 0.15 | 0.15 | 86 | 1021.3 |
| 20260501205906 | 18 | 320 | 0.0 | 3.2 | 0.00 | 0.15 | 0.15 | 86 | 1021.3 |
| 20260501205808 | 18 | 320 | 1.6 | 3.2 | 0.00 | 0.15 | 0.15 | 87 | 1021.3 |
| 20260501205607 | 18 | 320 | 1.6 | 4.8 | 0.00 | 0.15 | 0.15 | 86 | 1021.3 |
| 20260501205507 | 18 | 320 | 1.6 | 4.8 | 0.00 | 0.15 | 0.15 | 86 | 1021.3 |
| 20260501205405 | 18 | 320 | 1.6 | 4.8 | 0.00 | 0.15 | 0.15 | 86 | 1021.3 |
| 20260501205306 | 18 | 320 | 1.6 | 4.8 | 0.00 | 0.15 | 0.15 | 87 | 1021.2 |
| 20260501205206 | 18 | 320 | 1.6 | 4.8 | 0.00 | 0.15 | 0.15 | 86 | 1021.3 |
| 20260501205107 | 18 | 320 | 1.6 | 4.8 | 0.00 | 0.15 | 0.15 | 86 | 1021.3 |
| 20260501205009 | 18 | 320 | 1.6 | 4.8 | 0.00 | 0.15 | 0.15 | 86 | 1021.3 |
| 20260501204907 | 18 | 320 | 1.6 | 4.8 | 0.00 | 0.15 | 0.15 | 86 | 1021.3 |
| 20260501204706 | 18 | 335 | 0.0 | 4.8 | 0.00 | 0.15 | 0.15 | 86 | 1021.2 |
| 20260501204606 | 18 | 23 | 0.0 | 3.2 | 0.00 | 0.15 | 0.15 | 86 | 1021.2 |
| 20260501204406 | 18 | 23 | 0.0 | 0.0 | 0.00 | 0.15 | 0.15 | 86 | 1021.2 |
| 20260501204307 | 18 | 23 | 0.0 | 0.0 | 0.00 | 0.15 | 0.15 | 86 | 1021.1 |
| 20260501204208 | 18 | 23 | 0.0 | 0.0 | 0.00 | 0.15 | 0.15 | 86 | 1021.2 |
| 20260501204106 | 18 | 23 | 0.0 | 0.0 | 0.00 | 0.15 | 0.15 | 86 | 1021.2 |
| 20260501204008 | 18 | 23 | 0.0 | 1.6 | 0.00 | 0.15 | 0.15 | 86 | 1021.2 |
| 20260501203906 | 18 | 23 | 0.0 | 3.2 | 0.00 | 0.15 | 0.15 | 86 | 1021.1 |
| 20260501203807 | 18 | 23 | 1.6 | 3.2 | 0.00 | 0.15 | 0.15 | 86 | 1021.2 |
| 20260501203706 | 18 | 23 | 1.6 | 4.8 | 0.00 | 0.15 | 0.15 | 86 | 1021.1 |
| 20260501203605 | 18 | 23 | 1.6 | 4.8 | 0.00 | 0.15 | 0.15 | 86 | 1021.2 |
| 20260501203508 | 18 | 23 | 1.6 | 6.4 | 0.00 | 0.15 | 0.15 | 86 | 1021.2 |
| 20260501203406 | 18 | 23 | 3.2 | 6.4 | 0.00 | 0.15 | 0.15 | 86 | 1021.2 |
| 20260501203308 | 18 | 23 | 3.2 | 6.4 | 0.00 | 0.15 | 0.15 | 86 | 1021.2 |
| 20260501203206 | 18 | 23 | 3.2 | 6.4 | 0.00 | 0.15 | 0.15 | 86 | 1021.2 |
| 20260501203009 | 18 | 23 | 3.2 | 6.4 | 0.00 | 0.15 | 0.15 | 86 | 1021.1 |
| 20260501202905 | 18 | 23 | 1.6 | 6.4 | 0.00 | 0.15 | 0.15 | 86 | 1021.1 |
| 20260501202806 | 18 | 23 | 1.6 | 6.4 | 0.00 | 0.15 | 0.15 | 86 | 1021.1 |
| 20260501202407 | 18 | 55 | 1.6 | 6.4 | 0.00 | 0.15 | 0.15 | 86 | 1021.1 |
| 20260501202306 | 18 | 55 | 1.6 | 4.8 | 0.00 | 0.15 | 0.15 | 86 | 1021.1 |
| 20260501202207 | 18 | 55 | 1.6 | 4.8 | 0.00 | 0.15 | 0.15 | 86 | 1021.0 |
| 20260501202105 | 18 | 55 | 1.6 | 4.8 | 0.00 | 0.15 | 0.15 | 86 | 1021.1 |
| 20260501201907 | 18 | 55 | 1.6 | 4.8 | 0.00 | 0.15 | 0.15 | 86 | 1021.1 |
| 20260501201807 | 18 | 55 | 3.2 | 4.8 | 0.00 | 0.15 | 0.15 | 86 | 1021.1 |
| 20260501201705 | 18 | 55 | 3.2 | 6.4 | 0.00 | 0.15 | 0.15 | 86 | 1021.1 |
| 20260501201605 | 18 | 55 | 3.2 | 6.4 | 0.00 | 0.15 | 0.15 | 86 | 1021.1 |
| 20260501201507 | 18 | 55 | 3.2 | 6.4 | 0.00 | 0.15 | 0.15 | 86 | 1021.1 |
| 20260501201405 | 18 | 55 | 3.2 | 6.4 | 0.00 | 0.15 | 0.15 | 86 | 1021.1 |
| 20260501201308 | 18 | 64 | 3.2 | 6.4 | 0.00 | 0.15 | 0.15 | 86 | 1021.0 |
| 20260501201210 | 18 | 64 | 4.8 | 6.4 | 0.00 | 0.15 | 0.15 | 86 | 1021.1 |
| 20260501201009 | 18 | 52 | 4.8 | 6.4 | 0.00 | 0.15 | 0.15 | 86 | 1021.0 |
| 20260501200905 | 18 | 60 | 4.8 | 8.0 | 0.00 | 0.15 | 0.15 | 86 | 1020.9 |
| 20260501200706 | 18 | 29 | 3.2 | 8.0 | 0.00 | 0.15 | 0.15 | 86 | 1020.9 |
| 20260501200607 | 18 | 46 | 3.2 | 8.0 | 0.00 | 0.15 | 0.15 | 86 | 1020.9 |
| 20260501200509 | 18 | 58 | 3.2 | 8.0 | 0.00 | 0.15 | 0.15 | 86 | 1020.9 |
| 20260501200406 | 18 | 60 | 3.2 | 8.0 | 0.00 | 0.15 | 0.15 | 86 | 1020.9 |
| 20260501200306 | 18 | 77 | 4.8 | 8.0 | 0.00 | 0.15 | 0.15 | 86 | 1020.9 |
| 20260501200105 | 18 | 53 | 4.8 | 9.7 | 0.00 | 0.15 | 0.15 | 86 | 1020.8 |
| 20260501200022 | 18 | 59 | 4.8 | 8.0 | 0.00 | 0.15 | 0.15 | 86 | 1020.8 |
| 20260501195906 | 18 | 59 | 3.2 | 9.7 | 0.00 | 0.15 | 0.15 | 86 | 1020.8 |
| 20260501195805 | 18 | 74 | 4.8 | 8.0 | 0.00 | 0.15 | 0.15 | 86 | 1020.9 |
| 20260501195707 | 18 | 52 | 4.8 | 8.0 | 0.00 | 0.15 | 0.15 | 86 | 1020.8 |
| 20260501195509 | 18 | 58 | 4.8 | 8.0 | 0.00 | 0.15 | 0.15 | 86 | 1020.7 |
| 20260501195407 | 18 | 75 | 3.2 | 8.0 | 0.00 | 0.15 | 0.15 | 86 | 1020.8 |
| 20260501195207 | 18 | 52 | 3.2 | 9.7 | 0.00 | 0.15 | 0.15 | 86 | 1020.7 |
| 20260501195106 | 18 | 76 | 3.2 | 9.7 | 0.00 | 0.15 | 0.15 | 86 | 1020.6 |
| 20260501194812 | 18 | 39 | 3.2 | 8.0 | 0.00 | 0.15 | 0.15 | 86 | 1020.7 |
| 20260501194707 | 18 | 58 | 3.2 | 8.0 | 0.00 | 0.15 | 0.15 | 86 | 1020.6 |
| 20260501194607 | 18 | 66 | 3.2 | 8.0 | 0.00 | 0.15 | 0.15 | 86 | 1020.6 |
| 20260501194307 | 18 | 66 | 6.4 | 12.9 | 0.00 | 0.15 | 0.15 | 86 | 1020.6 |
| 20260501194205 | 18 | 66 | 6.4 | 14.5 | 0.00 | 0.15 | 0.15 | 86 | 1020.6 |
| 20260501194107 | 18 | 66 | 4.8 | 14.5 | 0.00 | 0.15 | 0.15 | 86 | 1020.5 |
| 20260501193907 | 18 | 66 | 4.8 | 14.5 | 0.00 | 0.15 | 0.15 | 86 | 1020.5 |
| 20260501193806 | 18 | 18 | 4.8 | 14.5 | 0.00 | 0.15 | 0.15 | 86 | 1020.6 |
| 20260501193706 | 18 | 71 | 4.8 | 14.5 | 0.00 | 0.15 | 0.15 | 86 | 1020.6 |
| 20260501193606 | 18 | 57 | 4.8 | 14.5 | 0.00 | 0.15 | 0.15 | 86 | 1020.5 |
| 20260501193509 | 18 | 68 | 3.2 | 14.5 | 0.00 | 0.15 | 0.15 | 86 | 1020.6 |
| 20260501193407 | 18 | 61 | 3.2 | 14.5 | 0.00 | 0.15 | 0.15 | 86 | 1020.6 |
| 20260501193307 | 18 | 52 | 3.2 | 12.9 | 0.00 | 0.15 | 0.15 | 86 | 1020.6 |
| 20260501193211 | 18 | 73 | 3.2 | 11.3 | 0.00 | 0.15 | 0.15 | 86 | 1020.6 |
| 20260501193106 | 18 | 70 | 3.2 | 8.0 | 0.00 | 0.15 | 0.15 | 86 | 1020.5 |
| 20260501193009 | 18 | 351 | 3.2 | 8.0 | 0.00 | 0.15 | 0.15 | 86 | 1020.5 |
| 20260501192907 | 18 | 42 | 4.8 | 12.9 | 0.00 | 0.15 | 0.15 | 86 | 1020.5 |
| 20260501192812 | 18 | 42 | 4.8 | 12.9 | 0.00 | 0.15 | 0.15 | 86 | 1020.5 |
| 20260501192706 | 18 | 49 | 4.8 | 12.9 | 0.00 | 0.15 | 0.15 | 85 | 1020.4 |
| 20260501192606 | 18 | 66 | 4.8 | 12.9 | 0.00 | 0.15 | 0.15 | 85 | 1020.4 |
| 20260501192508 | 18 | 66 | 4.8 | 12.9 | 0.00 | 0.15 | 0.15 | 85 | 1020.4 |
| 20260501192407 | 18 | 51 | 6.4 | 12.9 | 0.00 | 0.15 | 0.15 | 85 | 1020.4 |
| 20260501192306 | 18 | 52 | 6.4 | 12.9 | 0.00 | 0.15 | 0.15 | 85 | 1020.3 |
| 20260501192205 | 18 | 63 | 6.4 | 12.9 | 0.00 | 0.15 | 0.15 | 85 | 1020.3 |
| 20260501192106 | 18 | 34 | 6.4 | 12.9 | 0.00 | 0.15 | 0.15 | 85 | 1020.4 |
| 20260501192011 | 18 | 72 | 6.4 | 11.3 | 0.00 | 0.15 | 0.15 | 85 | 1020.3 |
| 20260501191906 | 18 | 60 | 6.4 | 14.5 | 0.00 | 0.15 | 0.15 | 85 | 1020.2 |
| 20260501191707 | 18 | 58 | 8.0 | 14.5 | 0.00 | 0.15 | 0.15 | 85 | 1020.3 |
| 20260501191605 | 18 | 66 | 8.0 | 14.5 | 0.00 | 0.15 | 0.15 | 85 | 1020.2 |
| 20260501191509 | 18 | 357 | 8.0 | 14.5 | 0.00 | 0.15 | 0.15 | 85 | 1020.2 |
| 20260501191406 | 18 | 45 | 8.0 | 14.5 | 0.00 | 0.15 | 0.15 | 85 | 1020.1 |
| 20260501191305 | 18 | 56 | 8.0 | 16.1 | 0.00 | 0.15 | 0.15 | 85 | 1020.2 |
| 20260501191212 | 18 | 58 | 8.0 | 16.1 | 0.00 | 0.15 | 0.15 | 85 | 1020.2 |
| 20260501191106 | 18 | 71 | 8.0 | 16.1 | 0.00 | 0.15 | 0.15 | 85 | 1020.2 |
| 20260501190806 | 18 | 54 | 6.4 | 16.1 | 0.00 | 0.15 | 0.15 | 85 | 1020.0 |
| 20260501190508 | 18 | 23 | 4.8 | 14.5 | 0.00 | 0.15 | 0.15 | 85 | 1020.1 |
| 20260501190406 | 18 | 75 | 4.8 | 14.5 | 0.00 | 0.15 | 0.15 | 85 | 1020.1 |
| 20260501190207 | 18 | 108 | 4.8 | 9.7 | 0.00 | 0.15 | 0.15 | 85 | 1020.2 |
| 20260501190106 | 18 | 77 | 4.8 | 12.9 | 0.00 | 0.15 | 0.15 | 85 | 1020.1 |
| 20260501185906 | 18 | 50 | 4.8 | 14.5 | 0.00 | 0.15 | 0.15 | 85 | 1020.1 |
| 20260501185806 | 18 | 101 | 6.4 | 14.5 | 0.00 | 0.15 | 0.15 | 84 | 1020.1 |
| 20260501185709 | 18 | 101 | 6.4 | 14.5 | 0.00 | 0.15 | 0.15 | 84 | 1020.2 |
| 20260501185606 | 18 | 77 | 6.4 | 14.5 | 0.00 | 0.15 | 0.15 | 84 | 1020.2 |
| 20260501185406 | 18 | 87 | 8.0 | 14.5 | 0.00 | 0.15 | 0.15 | 84 | 1020.2 |
| 20260501185306 | 18 | 47 | 6.4 | 14.5 | 0.00 | 0.15 | 0.15 | 84 | 1020.1 |
| 20260501185206 | 18 | 41 | 6.4 | 14.5 | 0.00 | 0.15 | 0.15 | 84 | 1020.1 |
| 20260501185106 | 18 | 56 | 6.4 | 14.5 | 0.00 | 0.15 | 0.15 | 84 | 1020.1 |
| 20260501184807 | 18 | 71 | 6.4 | 14.5 | 0.00 | 0.15 | 0.15 | 84 | 1020.2 |
| 20260501184708 | 18 | 22 | 4.8 | 14.5 | 0.00 | 0.15 | 0.15 | 84 | 1020.2 |
| 20260501184507 | 18 | 54 | 3.2 | 14.5 | 0.00 | 0.15 | 0.15 | 84 | 1020.2 |
| 20260501184406 | 18 | 137 | 3.2 | 11.3 | 0.00 | 0.15 | 0.15 | 84 | 1020.2 |
| 20260501184307 | 18 | 68 | 3.2 | 11.3 | 0.00 | 0.15 | 0.15 | 84 | 1020.2 |
| 20260501184206 | 18 | 68 | 3.2 | 11.3 | 0.00 | 0.15 | 0.15 | 83 | 1020.1 |
| 20260501184106 | 18 | 68 | 3.2 | 11.3 | 0.00 | 0.15 | 0.15 | 83 | 1020.1 |
| 20260501184011 | 18 | 48 | 3.2 | 11.3 | 0.00 | 0.15 | 0.15 | 84 | 1020.1 |
| 20260501183906 | 18 | 54 | 3.2 | 11.3 | 0.00 | 0.15 | 0.15 | 83 | 1020.0 |
| 20260501183806 | 18 | 58 | 3.2 | 9.7 | 0.00 | 0.15 | 0.15 | 84 | 1020.1 |
| 20260501183607 | 18 | 39 | 3.2 | 9.7 | 0.00 | 0.15 | 0.15 | 83 | 1020.1 |
| 20260501183508 | 18 | 25 | 3.2 | 9.7 | 0.00 | 0.15 | 0.15 | 83 | 1020.1 |
| 20260501183406 | 18 | 50 | 4.8 | 9.7 | 0.00 | 0.15 | 0.15 | 83 | 1020.1 |
| 20260501183305 | 18 | 45 | 4.8 | 9.7 | 0.00 | 0.15 | 0.15 | 83 | 1020.1 |
| 20260501183205 | 18 | 44 | 4.8 | 14.5 | 0.00 | 0.15 | 0.15 | 83 | 1020.1 |
| 20260501183011 | 18 | 25 | 6.4 | 14.5 | 0.00 | 0.15 | 0.15 | 83 | 1020.1 |
| 20260501182906 | 18 | 62 | 6.4 | 14.5 | 0.00 | 0.15 | 0.15 | 83 | 1020.1 |
| 20260501182806 | 18 | 52 | 6.4 | 14.5 | 0.00 | 0.15 | 0.15 | 83 | 1020.1 |
| 20260501182709 | 18 | 27 | 6.4 | 14.5 | 0.00 | 0.15 | 0.15 | 83 | 1020.1 |
| 20260501182605 | 18 | 360 | 6.4 | 14.5 | 0.00 | 0.15 | 0.15 | 82 | 1020.0 |
| 20260501182507 | 18 | 58 | 6.4 | 14.5 | 0.00 | 0.15 | 0.15 | 82 | 1020.1 |
| 20260501182406 | 18 | 42 | 4.8 | 14.5 | 0.00 | 0.15 | 0.15 | 82 | 1020.1 |
| 20260501182307 | 18 | 60 | 4.8 | 14.5 | 0.00 | 0.15 | 0.15 | 82 | 1020.1 |
| 20260501182207 | 18 | 52 | 4.8 | 14.5 | 0.00 | 0.15 | 0.15 | 82 | 1020.0 |
| 20260501181906 | 18 | 31 | 4.8 | 14.5 | 0.00 | 0.15 | 0.15 | 82 | 1019.9 |
| 20260501181708 | 18 | 64 | 4.8 | 14.5 | 0.00 | 0.15 | 0.15 | 82 | 1019.8 |
| 20260501181605 | 18 | 29 | 4.8 | 14.5 | 0.00 | 0.15 | 0.15 | 82 | 1019.9 |
| 20260501181507 | 18 | 22 | 4.8 | 14.5 | 0.00 | 0.15 | 0.15 | 81 | 1019.9 |
| 20260501181406 | 18 | 22 | 4.8 | 14.5 | 0.00 | 0.15 | 0.15 | 81 | 1019.9 |
| 20260501181207 | 18 | 320 | 4.8 | 14.5 | 0.00 | 0.15 | 0.15 | 81 | 1019.9 |
| 20260501181108 | 19 | 24 | 3.2 | 14.5 | 0.00 | 0.15 | 0.15 | 81 | 1019.9 |
| 20260501181008 | 19 | 40 | 3.2 | 12.9 | 0.00 | 0.15 | 0.15 | 81 | 1019.9 |
| 20260501180905 | 19 | 309 | 3.2 | 12.9 | 0.00 | 0.15 | 0.15 | 81 | 1019.9 |
| 20260501180806 | 19 | 79 | 3.2 | 11.3 | 0.00 | 0.15 | 0.15 | 81 | 1019.9 |
| 20260501180706 | 19 | 38 | 3.2 | 11.3 | 0.00 | 0.15 | 0.15 | 81 | 1019.9 |
| 20260501180605 | 19 | 342 | 3.2 | 11.3 | 0.00 | 0.15 | 0.15 | 80 | 1019.8 |
| 20260501180507 | 19 | 17 | 3.2 | 11.3 | 0.00 | 0.15 | 0.15 | 80 | 1019.9 |
| 20260501180407 | 19 | 356 | 3.2 | 11.3 | 0.00 | 0.15 | 0.15 | 80 | 1019.9 |
| 20260501180306 | 19 | 73 | 3.2 | 11.3 | 0.00 | 0.15 | 0.15 | 80 | 1019.8 |
| 20260501180205 | 19 | 78 | 3.2 | 11.3 | 0.00 | 0.15 | 0.15 | 80 | 1019.8 |
| 20260501180106 | 19 | 83 | 3.2 | 11.3 | 0.00 | 0.15 | 0.15 | 80 | 1019.9 |